Time,TemperatureF,DewpointF,PressureIn,WindDirection,WindDirectionDegrees,WindSpeedMPH,WindSpeedGustMPH,Humidity,HourlyPrecipIn,Conditions,Clouds,dailyrainin,SoftwareType,DateUTC
2013-03-25 00:00:00,44.8,33.0,30.13,SSW,203,0.0,0.0,63,0.00,CLR,OVC,0.00,WeatherDisplay:10.37,2013-03-25 07:00:00,
2013-03-25 00:04:00,45.0,33.2,30.12,SSW,203,0.0,0.0,63,0.00,CLR,OVC,0.00,WeatherDisplay:10.37,2013-03-25 07:04:00,
2013-03-25 00:05:00,44.9,33.1,30.12,SSW,203,0.0,0.0,63,0.00,CLR,OVC,0.00,WeatherDisplay:10.37,2013-03-25 07:05:00,
2013-03-25 00:09:00,45.1,32.8,30.12,SSW,203,0.0,0.0,62,0.00,CLR,OVC,0.00,WeatherDisplay:10.37,2013-03-25 07:09:00,
2013-03-25 00:10:00,45.1,32.8,30.12,SSW,203,0.0,0.0,62,0.00,CLR,OVC,0.00,WeatherDisplay:10.37,2013-03-25 07:10:00,
2013-03-25 00:14:00,45.2,33.3,30.12,SSW,203,0.0,0.0,63,0.00,CLR,OVC,0.00,WeatherDisplay:10.37,2013-03-25 07:14:00,
2013-03-25 00:15:00,45.2,33.3,30.12,SSW,203,0.0,0.0,63,0.00,CLR,OVC,0.00,WeatherDisplay:10.37,2013-03-25 07:15:00,
2013-03-25 00:16:00,45.2,33.3,30.12,SSW,203,0.0,0.0,63,0.00,CLR,OVC,0.00,WeatherDisplay:10.37,2013-03-25 07:16:00,
2013-03-25 00:19:00,45.1,34.0,30.12,SSW,203,2.3,2.3,65,0.00,CLR,OVC,0.00,WeatherDisplay:10.37,2013-03-25 07:19:00,
2013-03-25 00:20:00,45.1,34.0,30.12,SSW,203,2.3,2.3,65,0.00,CLR,OVC,0.00,WeatherDisplay:10.37,2013-03-25 07:20:00,
2013-03-25 00:21:00,45.0,33.9,30.12,SSW,203,2.3,2.3,65,0.00,CLR,OVC,0.00,WeatherDisplay:10.37,2013-03-25 07:21:00,
2013-03-25 00:25:00,44.9,34.2,30.12,SSW,203,0.0,0.0,66,0.00,CLR,OVC,0.00,WeatherDisplay:10.37,2013-03-25 07:25:00,
2013-03-25 00:26:00,44.9,34.2,30.12,SSW,203,1.0,0.0,66,0.00,CLR,OVC,0.00,WeatherDisplay:10.37,2013-03-25 07:26:00,
2013-03-25 00:27:00,44.8,34.1,30.12,SSW,203,2.3,2.3,66,0.00,CLR,OVC,0.00,WeatherDisplay:10.37,2013-03-25 07:27:00,
2013-03-25 00:30:00,44.7,34.0,30.12,SSW,203,2.3,2.3,66,0.00,CLR,OVC,0.00,WeatherDisplay:10.37,2013-03-25 07:30:00,
2013-03-25 00:31:00,44.7,34.0,30.12,SSW,203,2.3,2.3,66,0.00,CLR,OVC,0.00,WeatherDisplay:10.37,2013-03-25 07:31:00,
2013-03-25 00:32:00,44.6,34.3,30.12,SSW,203,3.5,3.5,67,0.00,CLR,OVC,0.00,WeatherDisplay:10.37,2013-03-25 07:32:00,
2013-03-25 00:35:00,44.5,34.2,30.11,NNW,334,3.5,0.0,67,0.00,CLR,OVC,0.00,WeatherDisplay:10.37,2013-03-25 07:35:00,
2013-03-25 00:36:00,44.5,34.2,30.11,NNW,334,3.5,3.5,67,0.00,CLR,OVC,0.00,WeatherDisplay:10.37,2013-03-25 07:36:00,
2013-03-25 00:37:00,44.4,34.1,30.11,NNW,334,3.5,3.5,67,0.00,CLR,OVC,0.00,WeatherDisplay:10.37,2013-03-25 07:37:00,
2013-03-25 00:40:00,44.3,34.0,30.11,NNW,330,1.0,4.0,67,0.00,CLR,OVC,0.00,WeatherDisplay:10.37,2013-03-25 07:40:00,
2013-03-25 00:41:00,44.3,34.0,30.11,NNW,333,3.5,0.0,67,0.00,CLR,OVC,0.00,WeatherDisplay:10.37,2013-03-25 07:41:00,
2013-03-25 00:42:00,44.2,34.3,30.11,NNW,333,0.0,0.0,68,0.00,CLR,OVC,0.00,WeatherDisplay:10.37,2013-03-25 07:42:00,
2013-03-25 00:45:00,44.0,34.1,30.11,NNW,332,0.0,0.1,68,0.00,CLR,OVC,0.00,WeatherDisplay:10.37,2013-03-25 07:45:00,
2013-03-25 00:46:00,44.0,34.1,30.11,NNW,333,0.0,0.0,68,0.00,CLR,OVC,0.00,WeatherDisplay:10.37,2013-03-25 07:46:00,
2013-03-25 00:47:00,44.0,34.1,30.11,NNW,333,0.0,0.0,68,0.00,CLR,OVC,0.00,WeatherDisplay:10.37,2013-03-25 07:47:00,
2013-03-25 00:50:00,43.7,33.8,30.11,NNW,333,0.0,0.0,68,0.00,CLR,OVC,0.00,WeatherDisplay:10.37,2013-03-25 07:50:00,
2013-03-25 00:52:00,43.7,34.2,30.11,NNW,333,0.0,0.0,69,0.00,CLR,OVC,0.00,WeatherDisplay:10.37,2013-03-25 07:52:00,
2013-03-25 00:55:00,43.5,34.0,30.11,NNW,333,0.0,0.0,69,0.00,CLR,OVC,0.00,WeatherDisplay:10.37,2013-03-25 07:55:00,
2013-03-25 00:57:00,43.4,34.3,30.11,NNW,333,2.3,2.3,70,0.00,CLR,OVC,0.00,WeatherDisplay:10.37,2013-03-25 07:57:00,
2013-03-25 00:58:00,43.4,34.3,30.11,NNW,332,0.0,0.0,70,0.00,CLR,OVC,0.00,WeatherDisplay:10.37,2013-03-25 07:58:00,
2013-03-25 01:00:00,43.3,34.2,30.11,NNW,333,0.0,0.0,70,0.00,CLR,OVC,0.00,WeatherDisplay:10.37,2013-03-25 08:00:00,
2013-03-25 01:02:00,43.2,34.1,30.11,NNW,333,0.0,0.0,70,0.00,CLR,OVC,0.00,WeatherDisplay:10.37,2013-03-25 08:02:00,
2013-03-25 01:03:00,43.2,34.4,30.11,NNW,333,0.0,0.0,71,0.00,CLR,OVC,0.00,WeatherDisplay:10.37,2013-03-25 08:03:00,
2013-03-25 01:05:00,43.1,34.3,30.11,NNW,332,0.0,0.0,71,0.00,CLR,OVC,0.00,WeatherDisplay:10.37,2013-03-25 08:05:00,
2013-03-25 01:07:00,43.0,34.6,30.11,NNW,333,0.0,0.0,72,0.00,CLR,OVC,0.00,WeatherDisplay:10.37,2013-03-25 08:07:00,
2013-03-25 01:08:00,43.0,34.6,30.11,NNW,333,0.0,0.0,72,0.00,CLR,OVC,0.00,WeatherDisplay:10.37,2013-03-25 08:08:00,
2013-03-25 01:11:00,42.9,34.5,30.11,NNW,332,0.0,0.0,72,0.00,CLR,OVC,0.00,WeatherDisplay:10.37,2013-03-25 08:11:00,
2013-03-25 01:12:00,42.8,34.4,30.11,NNW,333,0.0,0.0,72,0.00,CLR,OVC,0.00,WeatherDisplay:10.37,2013-03-25 08:12:00,
2013-03-25 01:13:00,42.8,34.4,30.11,NNW,332,0.0,0.0,72,0.00,CLR,OVC,0.00,WeatherDisplay:10.37,2013-03-25 08:13:00,
2013-03-25 01:16:00,42.7,34.3,30.11,NNW,333,0.0,0.0,72,0.00,CLR,OVC,0.00,WeatherDisplay:10.37,2013-03-25 08:16:00,
2013-03-25 01:17:00,42.7,34.3,30.11,NNW,333,0.0,0.0,72,0.00,CLR,OVC,0.00,WeatherDisplay:10.37,2013-03-25 08:17:00,
2013-03-25 01:18:00,42.7,34.3,30.11,NNW,333,0.0,0.0,72,0.00,CLR,OVC,0.00,WeatherDisplay:10.37,2013-03-25 08:18:00,
2013-03-25 01:21:00,42.6,34.2,30.11,NNW,333,0.0,0.0,72,0.00,CLR,OVC,0.00,WeatherDisplay:10.37,2013-03-25 08:21:00,
2013-03-25 01:23:00,42.5,34.5,30.11,NNW,333,0.0,0.0,73,0.00,CLR,OVC,0.00,WeatherDisplay:10.37,2013-03-25 08:23:00,
2013-03-25 01:27:00,42.5,34.1,30.11,NNW,333,0.0,0.0,72,0.00,CLR,OVC,0.00,WeatherDisplay:10.37,2013-03-25 08:27:00,
2013-03-25 01:28:00,42.4,34.0,30.11,NNW,333,0.0,0.0,72,0.00,CLR,OVC,0.00,WeatherDisplay:10.37,2013-03-25 08:28:00,
2013-03-25 01:29:00,42.4,34.0,30.11,NNW,333,0.0,0.0,72,0.00,CLR,OVC,0.00,WeatherDisplay:10.37,2013-03-25 08:29:00,
2013-03-25 01:33:00,42.4,34.0,30.10,NNW,333,0.0,0.0,72,0.00,CLR,OVC,0.00,WeatherDisplay:10.37,2013-03-25 08:33:00,
2013-03-25 01:34:00,42.4,34.0,30.10,NNW,332,0.0,0.0,72,0.00,CLR,OVC,0.00,WeatherDisplay:10.37,2013-03-25 08:34:00,
2013-03-25 01:38:00,42.4,34.0,30.10,NNW,333,0.0,0.0,72,0.00,CLR,OVC,0.00,WeatherDisplay:10.37,2013-03-25 08:38:00,
2013-03-25 01:39:00,42.5,34.5,30.10,NNW,333,0.0,0.0,73,0.00,CLR,OVC,0.00,WeatherDisplay:10.37,2013-03-25 08:39:00,
2013-03-25 01:43:00,42.4,34.4,30.10,NNW,332,2.0,2.0,73,0.00,CLR,OVC,0.00,WeatherDisplay:10.37,2013-03-25 08:43:00,
2013-03-25 01:44:00,42.4,34.7,30.10,NNW,332,2.3,2.3,74,0.00,CLR,OVC,0.00,WeatherDisplay:10.37,2013-03-25 08:44:00,
2013-03-25 01:48:00,42.3,34.6,30.10,NNW,333,0.0,0.0,74,0.00,CLR,OVC,0.00,WeatherDisplay:10.37,2013-03-25 08:48:00,
2013-03-25 01:49:00,42.3,34.6,30.10,NNW,333,0.0,0.0,74,0.00,CLR,OVC,0.00,WeatherDisplay:10.37,2013-03-25 08:49:00,
2013-03-25 01:53:00,42.1,34.7,30.10,NNW,333,0.0,0.0,75,0.00,CLR,OVC,0.00,WeatherDisplay:10.37,2013-03-25 08:53:00,
2013-03-25 01:54:00,42.0,35.0,30.10,NNW,333,0.0,0.0,76,0.00,CLR,OVC,0.00,WeatherDisplay:10.37,2013-03-25 08:54:00,
2013-03-25 01:58:00,41.8,34.8,30.10,NNW,333,0.0,0.0,76,0.00,CLR,OVC,0.00,WeatherDisplay:10.37,2013-03-25 08:58:00,
2013-03-25 01:59:00,41.8,34.8,30.10,NNW,333,0.0,0.0,76,0.00,CLR,OVC,0.00,WeatherDisplay:10.37,2013-03-25 08:59:00,
2013-03-25 02:03:00,41.7,35.0,30.10,NNW,333,2.3,0.0,77,0.00,CLR,OVC,0.00,WeatherDisplay:10.37,2013-03-25 09:03:00,
2013-03-25 02:04:00,41.6,34.9,30.10,NNW,332,2.3,2.3,77,0.00,CLR,OVC,0.00,WeatherDisplay:10.37,2013-03-25 09:04:00,
2013-03-25 02:08:00,41.6,34.9,30.10,NNW,332,2.3,2.3,77,0.00,CLR,OVC,0.00,WeatherDisplay:10.37,2013-03-25 09:08:00,
2013-03-25 02:09:00,41.5,34.8,30.10,NNW,332,3.5,3.5,77,0.00,CLR,OVC,0.00,WeatherDisplay:10.37,2013-03-25 09:09:00,
2013-03-25 02:14:00,41.6,34.9,30.10,NNW,341,4.0,4.0,77,0.00,CLR,OVC,0.00,WeatherDisplay:10.37,2013-03-25 09:14:00,
2013-03-25 02:19:00,41.6,34.9,30.10,NNW,333,3.0,3.0,77,0.00,CLR,OVC,0.00,WeatherDisplay:10.37,2013-03-25 09:19:00,
2013-03-25 02:24:00,41.6,34.9,30.10,NNW,333,0.0,0.0,77,0.00,CLR,OVC,0.00,WeatherDisplay:10.37,2013-03-25 09:24:00,
2013-03-25 02:25:00,41.6,34.9,30.10,NNW,333,0.0,0.0,77,0.00,CLR,OVC,0.00,WeatherDisplay:10.37,2013-03-25 09:25:00,
2013-03-25 02:29:00,41.5,34.8,30.10,NNW,333,0.0,0.0,77,0.00,CLR,OVC,0.00,WeatherDisplay:10.37,2013-03-25 09:29:00,
2013-03-25 02:30:00,41.5,34.8,30.10,NNW,333,0.0,0.0,77,0.00,CLR,OVC,0.00,WeatherDisplay:10.37,2013-03-25 09:30:00,
2013-03-25 02:34:00,41.4,35.1,30.10,NNW,333,1.1,1.1,78,0.00,CLR,OVC,0.00,WeatherDisplay:10.37,2013-03-25 09:34:00,
2013-03-25 02:35:00,41.4,35.1,30.10,NNW,333,1.1,1.1,78,0.00,CLR,OVC,0.00,WeatherDisplay:10.37,2013-03-25 09:35:00,
2013-03-25 02:40:00,41.3,35.0,30.09,NNW,340,4.6,4.6,78,0.00,CLR,OVC,0.00,WeatherDisplay:10.37,2013-03-25 09:40:00,
2013-03-25 02:45:00,41.3,35.0,30.09,NNW,340,0.0,0.0,78,0.00,CLR,OVC,0.00,WeatherDisplay:10.37,2013-03-25 09:45:00,
2013-03-25 02:50:00,41.4,35.1,30.09,NW,325,2.3,2.3,78,0.00,CLR,OVC,0.00,WeatherDisplay:10.37,2013-03-25 09:50:00,
2013-03-25 02:55:00,41.3,35.3,30.09,NW,325,1.1,1.1,79,0.00,CLR,OVC,0.00,WeatherDisplay:10.37,2013-03-25 09:55:00,
2013-03-25 02:56:00,41.3,35.3,30.09,NW,325,0.0,0.0,79,0.00,CLR,OVC,0.00,WeatherDisplay:10.37,2013-03-25 09:56:00,
2013-03-25 03:00:00,41.3,35.3,30.09,NW,325,3.5,3.5,79,0.00,CLR,OVC,0.00,WeatherDisplay:10.37,2013-03-25 10:00:00,
2013-03-25 03:01:00,41.3,35.3,30.09,NW,323,3.5,3.5,79,0.00,CLR,OVC,0.00,WeatherDisplay:10.37,2013-03-25 10:01:00,
2013-03-25 03:05:00,41.3,35.3,30.09,NNW,332,3.5,3.5,79,0.00,CLR,OVC,0.00,WeatherDisplay:10.37,2013-03-25 10:05:00,
2013-03-25 03:06:00,41.3,35.3,30.09,NNW,332,2.3,2.3,79,0.00,CLR,OVC,0.00,WeatherDisplay:10.37,2013-03-25 10:06:00,
2013-03-25 03:10:00,41.3,35.6,30.09,NNW,332,1.1,0.0,80,0.00,CLR,OVC,0.00,WeatherDisplay:10.37,2013-03-25 10:10:00,
2013-03-25 03:11:00,41.3,35.6,30.09,NNW,332,1.1,1.1,80,0.00,CLR,OVC,0.00,WeatherDisplay:10.37,2013-03-25 10:11:00,
2013-03-25 03:15:00,41.2,35.5,30.09,NNW,332,1.1,1.1,80,0.00,CLR,OVC,0.00,WeatherDisplay:10.37,2013-03-25 10:15:00,
2013-03-25 03:16:00,41.1,35.4,30.09,NW,326,4.6,4.6,80,0.00,CLR,OVC,0.00,WeatherDisplay:10.37,2013-03-25 10:16:00,
2013-03-25 03:20:00,41.1,35.7,30.09,NNW,333,0.0,5.0,81,0.00,CLR,OVC,0.00,WeatherDisplay:10.37,2013-03-25 10:20:00,
2013-03-25 03:21:00,41.1,35.7,30.09,NNW,333,2.3,2.3,81,0.00,CLR,OVC,0.00,WeatherDisplay:10.37,2013-03-25 10:21:00,
2013-03-25 03:25:00,41.0,35.6,30.09,NNW,329,1.1,1.1,81,0.00,CLR,OVC,0.00,WeatherDisplay:10.37,2013-03-25 10:25:00,
2013-03-25 03:26:00,41.0,35.6,30.09,NNW,329,1.1,1.1,81,0.00,CLR,OVC,0.00,WeatherDisplay:10.37,2013-03-25 10:26:00,
2013-03-25 03:27:00,41.0,35.3,30.09,NNW,329,0.0,0.0,80,0.00,CLR,OVC,0.00,WeatherDisplay:10.37,2013-03-25 10:27:00,
2013-03-25 03:28:00,41.0,35.6,30.09,NNW,329,1.1,1.1,81,0.00,CLR,OVC,0.00,WeatherDisplay:10.37,2013-03-25 10:28:00,
2013-03-25 03:31:00,41.0,35.6,30.09,NNW,335,0.0,0.1,81,0.00,CLR,OVC,0.00,WeatherDisplay:10.37,2013-03-25 10:31:00,
2013-03-25 03:32:00,41.0,35.6,30.09,NNW,342,3.0,3.0,81,0.00,CLR,OVC,0.00,WeatherDisplay:10.37,2013-03-25 10:32:00,
2013-03-25 03:33:00,41.0,35.6,30.09,NNW,341,3.5,3.5,81,0.00,CLR,OVC,0.00,WeatherDisplay:10.37,2013-03-25 10:33:00,
2013-03-25 03:36:00,41.0,35.3,30.09,NNW,336,1.1,0.0,80,0.00,CLR,OVC,0.00,WeatherDisplay:10.37,2013-03-25 10:36:00,
2013-03-25 03:37:00,41.1,35.4,30.09,NNW,333,3.5,3.5,80,0.00,CLR,OVC,0.00,WeatherDisplay:10.37,2013-03-25 10:37:00,
2013-03-25 03:38:00,41.1,35.4,30.09,NNW,333,3.5,3.5,80,0.00,CLR,OVC,0.00,WeatherDisplay:10.37,2013-03-25 10:38:00,
2013-03-25 03:41:00,41.0,35.3,30.09,NNW,333,3.5,3.5,80,0.00,CLR,OVC,0.00,WeatherDisplay:10.37,2013-03-25 10:41:00,
2013-03-25 03:43:00,41.0,35.3,30.09,NNW,335,3.5,3.5,80,0.00,CLR,OVC,0.00,WeatherDisplay:10.37,2013-03-25 10:43:00,
2013-03-25 03:44:00,41.1,35.4,30.09,NNW,342,3.5,3.5,80,0.00,CLR,OVC,0.00,WeatherDisplay:10.37,2013-03-25 10:44:00,
2013-03-25 03:47:00,41.0,35.3,30.08,North,355,1.1,1.1,80,0.00,CLR,OVC,0.00,WeatherDisplay:10.37,2013-03-25 10:47:00,
2013-03-25 03:48:00,41.0,35.3,30.08,NNW,348,1.1,1.1,80,0.00,CLR,OVC,0.00,WeatherDisplay:10.37,2013-03-25 10:48:00,
2013-03-25 03:49:00,41.0,35.6,30.08,NNW,348,2.3,2.3,81,0.00,CLR,OVC,0.00,WeatherDisplay:10.37,2013-03-25 10:49:00,
2013-03-25 03:52:00,41.0,35.6,30.08,NNW,339,3.5,3.5,81,0.00,CLR,OVC,0.00,WeatherDisplay:10.37,2013-03-25 10:52:00,
2013-03-25 03:53:00,40.9,35.2,30.08,NNW,333,3.5,3.5,80,0.00,CLR,OVC,0.00,WeatherDisplay:10.37,2013-03-25 10:53:00,
2013-03-25 03:54:00,40.9,35.2,30.08,NNW,331,3.5,3.5,80,0.00,CLR,OVC,0.00,WeatherDisplay:10.37,2013-03-25 10:54:00,
2013-03-25 03:58:00,40.9,35.5,30.08,NNW,333,3.5,3.5,81,0.00,CLR,OVC,0.00,WeatherDisplay:10.37,2013-03-25 10:58:00,
2013-03-25 03:59:00,40.9,35.2,30.08,NNW,333,3.5,0.0,80,0.00,CLR,OVC,0.00,WeatherDisplay:10.37,2013-03-25 10:59:00,
2013-03-25 04:03:00,40.7,35.0,30.08,NW,313,3.5,3.5,80,0.00,CLR,OVC,0.00,WeatherDisplay:10.37,2013-03-25 11:03:00,
2013-03-25 04:04:00,40.7,35.0,30.08,NNW,328,3.5,3.5,80,0.00,CLR,OVC,0.00,WeatherDisplay:10.37,2013-03-25 11:04:00,
2013-03-25 04:09:00,40.5,34.8,30.08,NNW,329,4.6,4.6,80,0.00,CLR,OVC,0.00,WeatherDisplay:10.37,2013-03-25 11:09:00,
2013-03-25 04:14:00,40.3,34.9,30.08,NW,326,5.8,5.8,81,0.00,CLR,OVC,0.00,WeatherDisplay:10.37,2013-03-25 11:14:00,
2013-03-25 04:19:00,40.2,34.8,30.08,NW,313,1.1,0.0,81,0.00,CLR,OVC,0.00,WeatherDisplay:10.37,2013-03-25 11:19:00,
2013-03-25 04:24:00,40.1,34.7,30.08,NW,323,2.3,2.3,81,0.00,CLR,OVC,0.00,WeatherDisplay:10.37,2013-03-25 11:24:00,
2013-03-25 04:29:00,40.0,34.6,30.08,NNW,332,5.0,5.0,81,0.00,CLR,OVC,0.00,WeatherDisplay:10.37,2013-03-25 11:29:00,
2013-03-25 04:30:00,40.0,34.6,30.08,NNW,340,4.6,4.6,81,0.00,CLR,OVC,0.00,WeatherDisplay:10.37,2013-03-25 11:30:00,
2013-03-25 04:34:00,40.0,34.6,30.08,NW,326,3.5,3.5,81,0.00,CLR,OVC,0.00,WeatherDisplay:10.37,2013-03-25 11:34:00,
2013-03-25 04:35:00,40.0,34.6,30.08,NW,326,3.5,3.5,81,0.00,CLR,OVC,0.00,WeatherDisplay:10.37,2013-03-25 11:35:00,
2013-03-25 04:39:00,40.0,34.6,30.07,North,349,3.5,3.5,81,0.00,CLR,OVC,0.00,WeatherDisplay:10.37,2013-03-25 11:39:00,
2013-03-25 04:40:00,39.9,34.5,30.07,North,349,3.5,3.5,81,0.00,CLR,OVC,0.00,WeatherDisplay:10.37,2013-03-25 11:40:00,
2013-03-25 04:44:00,39.9,34.5,30.07,NNW,336,3.5,3.5,81,0.00,CLR,OVC,0.00,WeatherDisplay:10.37,2013-03-25 11:44:00,
2013-03-25 04:45:00,39.9,34.5,30.07,NNW,336,3.5,3.5,81,0.00,CLR,OVC,0.00,WeatherDisplay:10.37,2013-03-25 11:45:00,
2013-03-25 04:49:00,39.8,34.4,30.07,NNW,342,3.5,3.5,81,0.00,CLR,OVC,0.00,WeatherDisplay:10.37,2013-03-25 11:49:00,
2013-03-25 04:50:00,39.8,34.4,30.07,NNW,329,3.5,3.5,81,0.00,CLR,OVC,0.00,WeatherDisplay:10.37,2013-03-25 11:50:00,
2013-03-25 04:55:00,39.8,34.4,30.07,NW,318,3.5,3.5,81,0.00,CLR,OVC,0.00,WeatherDisplay:10.37,2013-03-25 11:55:00,
2013-03-25 05:00:00,39.8,34.4,30.07,NNW,328,2.3,2.3,81,0.00,CLR,OVC,0.00,WeatherDisplay:10.37,2013-03-25 12:00:00,
2013-03-25 05:05:00,39.8,34.1,30.07,NNW,336,3.5,3.5,80,0.00,CLR,OVC,0.00,WeatherDisplay:10.37,2013-03-25 12:05:00,
2013-03-25 05:06:00,39.8,34.1,30.07,NNW,336,1.1,1.1,80,0.00,CLR,OVC,0.00,WeatherDisplay:10.37,2013-03-25 12:06:00,
2013-03-25 05:10:00,39.9,34.5,30.07,NNW,336,2.0,2.0,81,0.00,CLR,OVC,0.00,WeatherDisplay:10.37,2013-03-25 12:10:00,
2013-03-25 05:11:00,39.9,34.2,30.07,NNW,329,3.5,3.5,80,0.00,CLR,OVC,0.00,WeatherDisplay:10.37,2013-03-25 12:11:00,
2013-03-25 05:15:00,40.0,34.3,30.07,NNW,339,1.1,1.1,80,0.00,CLR,OVC,0.00,WeatherDisplay:10.37,2013-03-25 12:15:00,
2013-03-25 05:16:00,40.0,34.3,30.07,NNW,339,3.5,3.5,80,0.00,CLR,OVC,0.00,WeatherDisplay:10.37,2013-03-25 12:16:00,
2013-03-25 05:17:00,40.1,34.4,30.07,NNW,338,3.5,3.5,80,0.00,CLR,OVC,0.00,WeatherDisplay:10.37,2013-03-25 12:17:00,
2013-03-25 05:20:00,40.2,34.8,30.07,NW,317,4.0,4.0,81,0.00,CLR,OVC,0.00,WeatherDisplay:10.37,2013-03-25 12:20:00,
2013-03-25 05:22:00,40.2,34.5,30.07,NNW,330,3.5,3.5,80,0.00,CLR,OVC,0.00,WeatherDisplay:10.37,2013-03-25 12:22:00,
2013-03-25 05:25:00,40.2,34.2,30.07,NNW,327,3.5,3.5,79,0.00,CLR,OVC,0.00,WeatherDisplay:10.37,2013-03-25 12:25:00,
2013-03-25 05:27:00,40.1,34.4,30.07,NNW,327,1.1,1.1,80,0.00,CLR,OVC,0.00,WeatherDisplay:10.37,2013-03-25 12:27:00,
2013-03-25 05:30:00,40.0,34.3,30.08,NNW,338,3.5,3.5,80,0.00,CLR,OVC,0.00,WeatherDisplay:10.37,2013-03-25 12:30:00,
2013-03-25 05:32:00,40.0,34.3,30.07,NW,320,4.6,4.6,80,0.00,CLR,OVC,0.00,WeatherDisplay:10.37,2013-03-25 12:32:00,
2013-03-25 05:35:00,39.9,34.2,30.07,NNW,342,4.6,4.6,80,0.00,CLR,OVC,0.00,WeatherDisplay:10.37,2013-03-25 12:35:00,
2013-03-25 05:37:00,39.9,33.9,30.08,NNW,333,2.3,2.3,79,0.00,CLR,OVC,0.00,WeatherDisplay:10.37,2013-03-25 12:37:00,
2013-03-25 05:40:00,39.9,33.9,30.08,NNW,327,3.5,3.5,79,0.00,CLR,OVC,0.00,WeatherDisplay:10.37,2013-03-25 12:40:00,
2013-03-25 05:41:00,39.9,33.9,30.08,NNW,327,3.5,3.5,79,0.00,CLR,OVC,0.00,WeatherDisplay:10.37,2013-03-25 12:41:00,
2013-03-25 05:42:00,39.9,33.9,30.08,NNW,327,3.5,3.5,79,0.00,CLR,OVC,0.00,WeatherDisplay:10.37,2013-03-25 12:42:00,
2013-03-25 05:45:00,39.9,33.9,30.08,NNW,331,2.3,0.0,79,0.00,CLR,OVC,0.00,WeatherDisplay:10.37,2013-03-25 12:45:00,
2013-03-25 05:46:00,39.9,33.9,30.07,NNW,331,1.1,0.0,79,0.00,CLR,OVC,0.00,WeatherDisplay:10.37,2013-03-25 12:46:00,
2013-03-25 05:47:00,39.9,33.9,30.07,NNW,331,1.1,0.0,79,0.00,CLR,OVC,0.00,WeatherDisplay:10.37,2013-03-25 12:47:00,
2013-03-25 05:50:00,40.0,34.0,30.08,NNW,331,0.0,0.0,79,0.00,CLR,OVC,0.00,WeatherDisplay:10.37,2013-03-25 12:50:00,
2013-03-25 05:52:00,40.0,34.0,30.08,NNW,331,0.0,0.0,79,0.00,CLR,OVC,0.00,WeatherDisplay:10.37,2013-03-25 12:52:00,
2013-03-25 05:53:00,39.9,33.9,30.08,NNW,331,0.0,0.0,79,0.00,CLR,OVC,0.00,WeatherDisplay:10.37,2013-03-25 12:53:00,
2013-03-25 05:56:00,39.9,33.9,30.08,NNW,331,1.1,1.1,79,0.00,CLR,OVC,0.00,WeatherDisplay:10.37,2013-03-25 12:56:00,
2013-03-25 05:57:00,39.9,33.9,30.08,NNW,331,1.1,1.1,79,0.00,CLR,OVC,0.00,WeatherDisplay:10.37,2013-03-25 12:57:00,
2013-03-25 05:58:00,39.9,33.9,30.08,NNW,330,3.5,3.5,79,0.00,CLR,OVC,0.00,WeatherDisplay:10.37,2013-03-25 12:58:00,
2013-03-25 06:01:00,39.8,33.8,30.08,NNW,330,1.1,1.1,79,0.00,CLR,OVC,0.00,WeatherDisplay:10.37,2013-03-25 13:01:00,
2013-03-25 06:02:00,39.8,33.8,30.08,NNW,330,3.5,3.5,79,0.00,CLR,OVC,0.00,WeatherDisplay:10.37,2013-03-25 13:02:00,
2013-03-25 06:03:00,39.8,33.8,30.08,NNW,330,3.5,3.5,79,0.00,CLR,OVC,0.00,WeatherDisplay:10.37,2013-03-25 13:03:00,
2013-03-25 06:08:00,39.7,33.7,30.08,NNW,330,0.0,0.0,79,0.00,CLR,OVC,0.00,WeatherDisplay:10.37,2013-03-25 13:08:00,
2013-03-25 06:09:00,39.7,33.7,30.08,NNW,330,2.0,2.0,79,0.00,CLR,OVC,0.00,WeatherDisplay:10.37,2013-03-25 13:09:00,
2013-03-25 06:13:00,39.6,33.6,30.08,NNW,330,1.1,1.1,79,0.00,CLR,OVC,0.00,WeatherDisplay:10.37,2013-03-25 13:13:00,
2013-03-25 06:14:00,39.6,33.6,30.07,NNW,327,3.5,3.5,79,0.00,CLR,OVC,0.00,WeatherDisplay:10.37,2013-03-25 13:14:00,
2013-03-25 06:18:00,39.5,33.5,30.07,NNW,327,1.1,1.1,79,0.00,CLR,OVC,0.00,WeatherDisplay:10.37,2013-03-25 13:18:00,
2013-03-25 06:19:00,39.5,33.5,30.07,NW,325,3.5,3.5,79,0.00,CLR,OVC,0.00,WeatherDisplay:10.37,2013-03-25 13:19:00,
2013-03-25 06:23:00,39.5,33.5,30.07,NW,325,3.5,3.5,79,0.00,CLR,OVC,0.00,WeatherDisplay:10.37,2013-03-25 13:23:00,
2013-03-25 06:25:00,39.5,33.5,30.07,NNW,336,3.5,3.5,79,0.00,CLR,OVC,0.00,WeatherDisplay:10.37,2013-03-25 13:25:00,
2013-03-25 06:28:00,39.5,33.5,30.07,NNW,336,3.5,3.5,79,0.00,CLR,OVC,0.00,WeatherDisplay:10.37,2013-03-25 13:28:00,
2013-03-25 06:30:00,39.5,33.5,30.07,NNW,328,4.0,4.0,79,0.00,CLR,OVC,0.00,WeatherDisplay:10.37,2013-03-25 13:30:00,
2013-03-25 06:33:00,39.5,33.5,30.07,NNW,328,2.3,2.3,79,0.00,CLR,OVC,0.00,WeatherDisplay:10.37,2013-03-25 13:33:00,
2013-03-25 06:35:00,39.5,33.5,30.07,NNW,328,3.5,3.5,79,0.00,CLR,OVC,0.00,WeatherDisplay:10.37,2013-03-25 13:35:00,
2013-03-25 06:38:00,39.4,33.4,30.07,NNW,339,3.5,3.5,79,0.00,CLR,OVC,0.00,WeatherDisplay:10.37,2013-03-25 13:38:00,
2013-03-25 06:39:00,39.4,33.4,30.07,NNW,339,1.1,1.1,79,0.00,CLR,OVC,0.00,WeatherDisplay:10.37,2013-03-25 13:39:00,
2013-03-25 06:40:00,39.5,33.5,30.07,NNW,335,4.6,4.6,79,0.00,CLR,OVC,0.00,WeatherDisplay:10.37,2013-03-25 13:40:00,
2013-03-25 06:43:00,39.5,33.8,30.07,NNW,331,3.5,3.5,80,0.00,CLR,OVC,0.00,WeatherDisplay:10.37,2013-03-25 13:43:00,
2013-03-25 06:44:00,39.5,33.8,30.07,NNW,339,3.5,3.5,80,0.00,CLR,OVC,0.00,WeatherDisplay:10.37,2013-03-25 13:44:00,
2013-03-25 06:45:00,39.6,33.9,30.07,NNW,333,4.0,4.0,80,0.00,CLR,OVC,0.00,WeatherDisplay:10.37,2013-03-25 13:45:00,
2013-03-25 06:48:00,39.6,33.6,30.07,NNW,340,3.5,3.5,79,0.00,CLR,OVC,0.00,WeatherDisplay:10.37,2013-03-25 13:48:00,
2013-03-25 06:49:00,39.6,33.6,30.07,NNW,333,3.5,3.5,79,0.00,CLR,OVC,0.00,WeatherDisplay:10.37,2013-03-25 13:49:00,
2013-03-25 06:50:00,39.5,33.5,30.07,NNW,342,3.5,3.5,79,0.00,CLR,OVC,0.00,WeatherDisplay:10.37,2013-03-25 13:50:00,
2013-03-25 06:53:00,39.4,33.4,30.07,NNW,331,5.8,5.8,79,0.00,CLR,OVC,0.00,WeatherDisplay:10.37,2013-03-25 13:53:00,
2013-03-25 06:54:00,39.4,33.1,30.07,NNW,339,6.9,6.9,78,0.00,CLR,OVC,0.00,WeatherDisplay:10.37,2013-03-25 13:54:00,
2013-03-25 06:56:00,39.4,33.4,30.07,NW,325,3.5,3.5,79,0.00,CLR,OVC,0.00,WeatherDisplay:10.37,2013-03-25 13:56:00,
2013-03-25 06:58:00,39.3,33.0,30.07,NNW,342,2.3,2.3,78,0.00,CLR,OVC,0.00,WeatherDisplay:10.37,2013-03-25 13:58:00,
2013-03-25 06:59:00,39.3,33.0,30.07,NNW,344,3.5,3.5,78,0.00,CLR,OVC,0.00,WeatherDisplay:10.37,2013-03-25 13:59:00,
2013-03-25 07:00:00,39.3,33.0,30.07,NNW,330,4.6,4.6,78,0.00,CLR,OVC,0.00,WeatherDisplay:10.37,2013-03-25 14:00:00,
2013-03-25 07:02:00,39.3,33.0,30.07,NNW,335,5.8,5.8,78,0.00,CLR,OVC,0.00,WeatherDisplay:10.37,2013-03-25 14:02:00,
2013-03-25 07:03:00,39.3,33.0,30.06,NW,326,6.9,6.9,78,0.00,CLR,OVC,0.00,WeatherDisplay:10.37,2013-03-25 14:03:00,
2013-03-25 07:04:00,39.3,33.0,30.06,NW,326,6.9,6.9,78,0.00,CLR,OVC,0.00,WeatherDisplay:10.37,2013-03-25 14:04:00,
2013-03-25 07:05:00,39.3,33.0,30.06,NNW,340,6.9,6.9,78,0.00,CLR,OVC,0.00,WeatherDisplay:10.37,2013-03-25 14:05:00,
2013-03-25 07:07:00,39.4,33.1,30.07,NNW,338,5.8,5.8,78,0.00,CLR,OVC,0.00,WeatherDisplay:10.37,2013-03-25 14:07:00,
2013-03-25 07:08:00,39.4,32.8,30.06,NNW,338,2.3,2.3,77,0.00,CLR,OVC,0.00,WeatherDisplay:10.37,2013-03-25 14:08:00,
2013-03-25 07:09:00,39.4,32.8,30.06,NNW,338,2.3,2.3,77,0.00,CLR,OVC,0.00,WeatherDisplay:10.37,2013-03-25 14:09:00,
2013-03-25 07:10:00,39.4,32.8,30.06,NNW,338,2.3,2.3,77,0.00,CLR,OVC,0.00,WeatherDisplay:10.37,2013-03-25 14:10:00,
2013-03-25 07:12:00,39.4,32.8,30.06,NNW,342,3.5,3.5,77,0.00,CLR,OVC,0.00,WeatherDisplay:10.37,2013-03-25 14:12:00,
2013-03-25 07:13:00,39.4,32.8,30.07,NNW,331,3.5,3.5,77,0.00,CLR,OVC,0.00,WeatherDisplay:10.37,2013-03-25 14:13:00,
2013-03-25 07:14:00,39.4,32.8,30.07,NNW,331,3.5,3.5,77,0.00,CLR,OVC,0.00,WeatherDisplay:10.37,2013-03-25 14:14:00,
2013-03-25 07:16:00,39.4,32.8,30.07,NNW,343,3.5,3.5,77,0.00,CLR,OVC,0.00,WeatherDisplay:10.37,2013-03-25 14:16:00,
2013-03-25 07:17:00,39.4,32.8,30.07,NNW,343,2.3,2.3,77,0.00,CLR,OVC,0.00,WeatherDisplay:10.37,2013-03-25 14:17:00,
2013-03-25 07:18:00,39.4,32.8,30.07,NNW,343,2.3,2.3,77,0.00,CLR,OVC,0.00,WeatherDisplay:10.37,2013-03-25 14:18:00,
2013-03-25 07:19:00,39.4,32.8,30.07,NNW,343,2.3,2.3,77,0.00,CLR,OVC,0.00,WeatherDisplay:10.37,2013-03-25 14:19:00,
2013-03-25 07:21:00,39.5,32.9,30.07,NNW,343,0.0,0.0,77,0.00,CLR,OVC,0.00,WeatherDisplay:10.37,2013-03-25 14:21:00,
2013-03-25 07:22:00,39.5,32.9,30.07,NNW,343,0.0,0.0,77,0.00,CLR,OVC,0.00,WeatherDisplay:10.37,2013-03-25 14:22:00,
2013-03-25 07:24:00,39.5,32.9,30.07,NNW,343,0.0,0.0,77,0.00,CLR,OVC,0.00,WeatherDisplay:10.37,2013-03-25 14:24:00,
2013-03-25 07:27:00,39.5,33.5,30.07,NNW,343,0.0,0.0,79,0.00,CLR,OVC,0.00,WeatherDisplay:10.37,2013-03-25 14:27:00,
2013-03-25 07:28:00,39.5,33.8,30.07,NNW,343,0.0,0.0,80,0.00,CLR,OVC,0.00,WeatherDisplay:10.37,2013-03-25 14:28:00,
2013-03-25 07:29:00,39.6,34.6,30.07,NNW,343,0.0,0.0,82,0.00,CLR,OVC,0.00,WeatherDisplay:10.37,2013-03-25 14:29:00,
2013-03-25 07:32:00,39.6,34.6,30.07,NNW,343,0.0,0.0,82,0.00,CLR,OVC,0.00,WeatherDisplay:10.37,2013-03-25 14:32:00,
2013-03-25 07:33:00,39.6,34.9,30.07,NNW,343,0.0,0.0,83,0.00,CLR,OVC,0.00,WeatherDisplay:10.37,2013-03-25 14:33:00,
2013-03-25 07:34:00,39.6,34.6,30.07,NNW,343,0.0,0.0,82,0.00,CLR,OVC,0.00,WeatherDisplay:10.37,2013-03-25 14:34:00,
2013-03-25 07:35:00,39.5,34.5,30.07,NNW,343,0.0,0.0,82,0.00,CLR,OVC,0.00,WeatherDisplay:10.37,2013-03-25 14:35:00,
2013-03-25 07:37:00,39.5,33.8,30.07,NNW,343,0.0,0.0,80,0.00,CLR,OVC,0.00,WeatherDisplay:10.37,2013-03-25 14:37:00,
2013-03-25 07:38:00,39.5,33.8,30.07,NNW,343,0.0,0.0,80,0.00,CLR,OVC,0.00,WeatherDisplay:10.37,2013-03-25 14:38:00,
2013-03-25 07:39:00,39.5,33.5,30.07,NNW,343,0.0,0.0,79,0.00,CLR,OVC,0.00,WeatherDisplay:10.37,2013-03-25 14:39:00,
2013-03-25 07:40:00,39.5,33.5,30.07,NNW,343,0.0,0.0,79,0.00,CLR,OVC,0.00,WeatherDisplay:10.37,2013-03-25 14:40:00,
2013-03-25 07:42:00,39.5,33.2,30.07,NNW,343,1.1,0.0,78,0.00,CLR,OVC,0.00,WeatherDisplay:10.37,2013-03-25 14:42:00,
2013-03-25 07:43:00,39.5,33.2,30.07,NNW,343,1.1,1.1,78,0.00,CLR,OVC,0.00,WeatherDisplay:10.37,2013-03-25 14:43:00,
2013-03-25 07:44:00,39.5,33.2,30.07,NNW,343,0.0,0.0,78,0.00,CLR,OVC,0.00,WeatherDisplay:10.37,2013-03-25 14:44:00,
2013-03-25 07:45:00,39.5,33.2,30.07,NNW,343,0.0,0.0,78,0.00,CLR,OVC,0.00,WeatherDisplay:10.37,2013-03-25 14:45:00,
2013-03-25 07:47:00,39.6,33.6,30.07,NNW,343,0.0,0.0,79,0.00,CLR,OVC,0.00,WeatherDisplay:10.37,2013-03-25 14:47:00,
2013-03-25 07:49:00,39.6,33.6,30.07,NNW,343,0.0,0.0,79,0.00,CLR,OVC,0.00,WeatherDisplay:10.37,2013-03-25 14:49:00,
2013-03-25 07:50:00,39.6,33.6,30.07,NNW,343,0.0,0.0,79,0.00,CLR,OVC,0.00,WeatherDisplay:10.37,2013-03-25 14:50:00,
2013-03-25 07:52:00,39.6,33.6,30.07,NNW,343,0.0,0.0,79,0.00,CLR,OVC,0.00,WeatherDisplay:10.37,2013-03-25 14:52:00,
2013-03-25 07:54:00,39.6,33.3,30.07,NNW,343,0.0,0.0,78,0.00,CLR,OVC,0.00,WeatherDisplay:10.37,2013-03-25 14:54:00,
2013-03-25 07:55:00,39.6,33.3,30.07,NNW,343,0.0,0.0,78,0.00,CLR,OVC,0.00,WeatherDisplay:10.37,2013-03-25 14:55:00,
2013-03-25 07:58:00,39.7,33.4,30.07,NNW,343,0.0,0.0,78,0.00,CLR,OVC,0.00,WeatherDisplay:10.37,2013-03-25 14:58:00,
2013-03-25 07:59:00,39.7,33.4,30.07,NNW,343,0.0,0.0,78,0.00,CLR,OVC,0.00,WeatherDisplay:10.37,2013-03-25 14:59:00,
2013-03-25 08:00:00,39.7,33.4,30.07,NNW,343,1.0,1.0,78,0.00,CLR,OVC,0.00,WeatherDisplay:10.37,2013-03-25 15:00:00,
2013-03-25 08:03:00,39.7,33.4,30.06,NNW,343,0.0,0.0,78,0.00,CLR,OVC,0.00,WeatherDisplay:10.37,2013-03-25 15:03:00,
2013-03-25 08:04:00,39.7,33.4,30.06,NNW,343,1.1,0.0,78,0.00,CLR,OVC,0.00,WeatherDisplay:10.37,2013-03-25 15:04:00,
2013-03-25 08:05:00,39.7,33.4,30.07,NNW,343,0.0,0.0,78,0.00,CLR,OVC,0.00,WeatherDisplay:10.37,2013-03-25 15:05:00,
2013-03-25 08:08:00,39.8,33.5,30.06,NNW,343,2.3,2.3,78,0.00,CLR,OVC,0.00,WeatherDisplay:10.37,2013-03-25 15:08:00,
2013-03-25 08:09:00,39.8,33.2,30.07,NNW,343,1.1,0.0,77,0.00,CLR,OVC,0.00,WeatherDisplay:10.37,2013-03-25 15:09:00,
2013-03-25 08:10:00,39.8,33.5,30.06,NNW,343,0.0,0.0,78,0.00,CLR,OVC,0.00,WeatherDisplay:10.37,2013-03-25 15:10:00,
2013-03-25 08:13:00,39.8,33.5,30.06,NNW,343,0.0,0.0,78,0.00,CLR,OVC,0.00,WeatherDisplay:10.37,2013-03-25 15:13:00,
2013-03-25 08:14:00,39.9,33.6,30.06,NNW,343,1.1,0.0,78,0.00,CLR,OVC,0.00,WeatherDisplay:10.37,2013-03-25 15:14:00,
2013-03-25 08:15:00,39.9,33.6,30.06,NNW,341,3.0,3.0,78,0.00,CLR,OVC,0.00,WeatherDisplay:10.37,2013-03-25 15:15:00,
2013-03-25 08:18:00,40.0,34.0,30.06,NNW,335,1.1,1.1,79,0.00,CLR,OVC,0.00,WeatherDisplay:10.37,2013-03-25 15:18:00,
2013-03-25 08:19:00,40.0,34.0,30.06,NNW,335,2.0,2.0,79,0.00,CLR,OVC,0.00,WeatherDisplay:10.37,2013-03-25 15:19:00,
2013-03-25 08:20:00,40.0,34.0,30.06,NNW,335,2.3,2.3,79,0.00,CLR,OVC,0.00,WeatherDisplay:10.37,2013-03-25 15:20:00,
2013-03-25 08:23:00,40.1,34.1,30.06,NNW,335,1.1,1.1,79,0.00,CLR,OVC,0.00,WeatherDisplay:10.37,2013-03-25 15:23:00,
2013-03-25 08:25:00,40.1,34.1,30.06,NNW,333,3.5,3.5,79,0.00,CLR,OVC,0.00,WeatherDisplay:10.37,2013-03-25 15:25:00,
2013-03-25 08:26:00,40.1,34.1,30.06,NNW,332,2.3,2.3,79,0.00,CLR,OVC,0.00,WeatherDisplay:10.37,2013-03-25 15:26:00,
2013-03-25 08:28:00,40.1,34.1,30.06,NNW,334,3.5,3.5,79,0.00,CLR,OVC,0.00,WeatherDisplay:10.37,2013-03-25 15:28:00,
2013-03-25 08:30:00,40.1,34.4,30.06,NNW,334,0.0,0.1,80,0.00,CLR,OVC,0.00,WeatherDisplay:10.37,2013-03-25 15:30:00,
2013-03-25 08:31:00,40.1,34.1,30.06,NNW,344,3.5,3.5,79,0.00,CLR,OVC,0.00,WeatherDisplay:10.37,2013-03-25 15:31:00,
2013-03-25 08:33:00,40.1,34.1,30.06,NNW,342,3.5,3.5,79,0.00,CLR,OVC,0.00,WeatherDisplay:10.37,2013-03-25 15:33:00,
2013-03-25 08:35:00,40.1,34.1,30.06,NW,325,3.5,3.5,79,0.00,CLR,OVC,0.00,WeatherDisplay:10.37,2013-03-25 15:35:00,
2013-03-25 08:36:00,40.2,33.9,30.06,NW,323,2.3,2.3,78,0.00,CLR,OVC,0.00,WeatherDisplay:10.37,2013-03-25 15:36:00,
2013-03-25 08:37:00,40.2,34.2,30.06,NW,326,3.5,3.5,79,0.00,CLR,OVC,0.00,WeatherDisplay:10.37,2013-03-25 15:37:00,
2013-03-25 08:38:00,40.3,34.6,30.06,NW,326,1.1,1.1,80,0.00,CLR,OVC,0.00,WeatherDisplay:10.37,2013-03-25 15:38:00,
2013-03-25 08:40:00,40.4,34.4,30.06,NW,326,0.0,0.0,79,0.00,CLR,OVC,0.00,WeatherDisplay:10.37,2013-03-25 15:40:00,
2013-03-25 08:41:00,40.4,34.4,30.06,NW,326,3.5,3.5,79,0.00,CLR,OVC,0.00,WeatherDisplay:10.37,2013-03-25 15:41:00,
2013-03-25 08:42:00,40.5,34.2,30.06,NNW,346,3.5,3.5,78,0.00,CLR,OVC,0.00,WeatherDisplay:10.37,2013-03-25 15:42:00,
2013-03-25 08:43:00,40.5,33.9,30.06,NNW,346,2.3,2.3,77,0.00,CLR,OVC,0.00,WeatherDisplay:10.37,2013-03-25 15:43:00,
2013-03-25 08:45:00,40.6,34.0,30.06,NNW,346,1.1,0.0,77,0.00,CLR,OVC,0.00,WeatherDisplay:10.37,2013-03-25 15:45:00,
2013-03-25 08:47:00,40.7,34.0,30.06,NNW,346,1.0,0.0,77,0.00,CLR,OVC,0.00,WeatherDisplay:10.37,2013-03-25 15:47:00,
2013-03-25 08:50:00,40.8,34.1,30.06,NNW,347,1.1,0.0,77,0.00,CLR,OVC,0.00,WeatherDisplay:10.37,2013-03-25 15:50:00,
2013-03-25 08:52:00,40.8,34.1,30.06,NNW,333,3.5,3.5,77,0.00,CLR,OVC,0.00,WeatherDisplay:10.37,2013-03-25 15:52:00,
2013-03-25 08:53:00,40.8,34.1,30.06,NNW,333,1.1,1.1,77,0.00,CLR,OVC,0.00,WeatherDisplay:10.37,2013-03-25 15:53:00,
2013-03-25 08:55:00,40.9,34.6,30.06,NNW,333,1.1,1.1,78,0.00,CLR,OVC,0.00,WeatherDisplay:10.37,2013-03-25 15:55:00,
2013-03-25 08:57:00,40.9,34.6,30.06,NNW,331,1.1,1.5,78,0.00,CLR,OVC,0.00,WeatherDisplay:10.37,2013-03-25 15:57:00,
2013-03-25 08:58:00,40.9,34.6,30.06,NNW,331,4.6,4.6,78,0.00,CLR,OVC,0.00,WeatherDisplay:10.37,2013-03-25 15:58:00,
2013-03-25 09:00:00,41.0,34.7,30.06,NNW,338,4.6,4.6,78,0.00,CLR,OVC,0.00,WeatherDisplay:10.37,2013-03-25 16:00:00,
2013-03-25 09:02:00,41.1,34.4,30.06,NW,321,3.5,3.5,77,0.00,CLR,OVC,0.00,WeatherDisplay:10.37,2013-03-25 16:02:00,
2013-03-25 09:03:00,41.2,34.5,30.06,NW,321,3.5,3.5,77,0.00,CLR,OVC,0.00,WeatherDisplay:10.37,2013-03-25 16:03:00,
2013-03-25 09:05:00,41.3,34.6,30.06,NNW,338,3.5,3.5,77,0.00,CLR,OVC,0.00,WeatherDisplay:10.37,2013-03-25 16:05:00,
2013-03-25 09:07:00,41.3,34.3,30.05,NNW,339,4.6,4.6,76,0.00,CLR,OVC,0.00,WeatherDisplay:10.37,2013-03-25 16:07:00,
2013-03-25 09:08:00,41.3,34.3,30.05,NNW,339,4.6,4.6,76,0.00,CLR,OVC,0.00,WeatherDisplay:10.37,2013-03-25 16:08:00,
2013-03-25 09:10:00,41.4,34.4,30.05,NNW,338,2.3,2.3,76,0.00,CLR,OVC,0.00,WeatherDisplay:10.37,2013-03-25 16:10:00,
2013-03-25 09:12:00,41.6,34.6,30.05,NNW,340,4.6,4.6,76,0.00,CLR,OVC,0.00,WeatherDisplay:10.37,2013-03-25 16:12:00,
2013-03-25 09:13:00,41.6,34.6,30.05,NNW,340,4.6,4.6,76,0.00,CLR,OVC,0.00,WeatherDisplay:10.37,2013-03-25 16:13:00,
2013-03-25 09:15:00,41.8,34.8,30.05,NNW,333,3.5,3.5,76,0.00,CLR,OVC,0.00,WeatherDisplay:10.37,2013-03-25 16:15:00,
2013-03-25 09:18:00,42.0,34.6,30.05,NNW,339,2.3,2.3,75,0.00,CLR,OVC,0.00,WeatherDisplay:10.37,2013-03-25 16:18:00,
2013-03-25 09:20:00,42.1,34.4,30.05,North,360,3.5,3.5,74,0.00,CLR,OVC,0.00,WeatherDisplay:10.37,2013-03-25 16:20:00,
2013-03-25 09:23:00,42.2,34.8,30.05,NNW,335,3.5,3.5,75,0.00,CLR,OVC,0.00,WeatherDisplay:10.37,2013-03-25 16:23:00,
2013-03-25 09:25:00,42.4,34.7,30.05,North,360,5.0,5.0,74,0.00,CLR,OVC,0.00,WeatherDisplay:10.37,2013-03-25 16:25:00,
2013-03-25 09:26:00,42.4,34.7,30.05,NW,323,4.6,4.6,74,0.00,CLR,OVC,0.00,WeatherDisplay:10.37,2013-03-25 16:26:00,
2013-03-25 09:28:00,42.6,34.5,30.05,NNW,342,3.5,0.0,73,0.00,CLR,OVC,0.00,WeatherDisplay:10.37,2013-03-25 16:28:00,
2013-03-25 09:30:00,42.8,35.1,30.05,NNW,344,0.0,4.0,74,0.00,CLR,OVC,0.00,WeatherDisplay:10.37,2013-03-25 16:30:00,
2013-03-25 09:31:00,42.8,35.1,30.05,NNW,342,1.1,1.1,74,0.00,CLR,OVC,0.00,WeatherDisplay:10.37,2013-03-25 16:31:00,
2013-03-25 09:33:00,43.1,35.0,30.05,WNW,294,2.3,2.3,73,0.00,CLR,OVC,0.00,WeatherDisplay:10.37,2013-03-25 16:33:00,
2013-03-25 09:35:00,43.3,34.9,30.05,NNW,331,3.5,3.5,72,0.00,CLR,OVC,0.00,WeatherDisplay:10.37,2013-03-25 16:35:00,
2013-03-25 09:36:00,43.3,34.9,30.05,NNW,331,3.5,3.5,72,0.00,CLR,OVC,0.00,WeatherDisplay:10.37,2013-03-25 16:36:00,
2013-03-25 09:38:00,43.5,34.7,30.05,NW,325,3.5,3.5,71,0.00,CLR,OVC,0.00,WeatherDisplay:10.37,2013-03-25 16:38:00,
2013-03-25 09:39:00,43.5,34.7,30.05,NW,325,3.5,3.5,71,0.00,CLR,OVC,0.00,WeatherDisplay:10.37,2013-03-25 16:39:00,
2013-03-25 09:40:00,43.7,34.9,30.05,NW,325,1.1,0.0,71,0.00,CLR,OVC,0.00,WeatherDisplay:10.37,2013-03-25 16:40:00,
2013-03-25 09:41:00,43.8,35.0,30.05,NW,325,1.1,0.0,71,0.00,CLR,OVC,0.00,WeatherDisplay:10.37,2013-03-25 16:41:00,
2013-03-25 09:44:00,44.1,34.9,30.05,NW,325,3.0,3.0,70,0.00,CLR,OVC,0.00,WeatherDisplay:10.37,2013-03-25 16:44:00,
2013-03-25 09:46:00,44.3,35.1,30.05,NW,325,3.5,3.5,70,0.00,CLR,OVC,0.00,WeatherDisplay:10.37,2013-03-25 16:46:00,
2013-03-25 09:49:00,44.6,36.8,30.05,NW,325,0.0,0.0,74,0.00,CLR,OVC,0.00,WeatherDisplay:10.37,2013-03-25 16:49:00,
2013-03-25 09:50:00,44.6,36.8,30.05,NW,325,1.1,0.0,74,0.00,CLR,OVC,0.00,WeatherDisplay:10.37,2013-03-25 16:50:00,
2013-03-25 09:51:00,44.7,36.2,30.05,NW,325,0.0,0.0,72,0.00,CLR,OVC,0.00,WeatherDisplay:10.37,2013-03-25 16:51:00,
2013-03-25 09:52:00,44.8,36.7,30.05,NW,325,1.0,1.0,73,0.00,CLR,OVC,0.00,WeatherDisplay:10.37,2013-03-25 16:52:00,
2013-03-25 09:54:00,44.9,35.7,30.05,NW,325,2.3,2.3,70,0.00,CLR,OVC,0.00,WeatherDisplay:10.37,2013-03-25 16:54:00,
2013-03-25 09:55:00,44.9,35.7,30.05,NW,325,2.3,2.3,70,0.00,CLR,OVC,0.00,WeatherDisplay:10.37,2013-03-25 16:55:00,
2013-03-25 09:56:00,44.9,35.0,30.05,NW,325,2.3,2.3,68,0.00,CLR,OVC,0.00,WeatherDisplay:10.37,2013-03-25 16:56:00,
2013-03-25 09:57:00,45.0,35.4,30.05,NW,325,3.5,3.5,69,0.00,CLR,OVC,0.00,WeatherDisplay:10.37,2013-03-25 16:57:00,
2013-03-25 09:59:00,45.0,35.4,30.05,NW,325,1.1,1.1,69,0.00,CLR,OVC,0.00,WeatherDisplay:10.37,2013-03-25 16:59:00,
2013-03-25 10:00:00,45.0,35.4,30.05,NW,325,1.1,1.1,69,0.00,CLR,OVC,0.00,WeatherDisplay:10.37,2013-03-25 17:00:00,
2013-03-25 10:01:00,45.0,35.1,30.05,NW,325,0.0,0.0,68,0.00,CLR,OVC,0.00,WeatherDisplay:10.37,2013-03-25 17:01:00,
2013-03-25 10:02:00,45.1,35.2,30.05,NW,325,0.0,0.0,68,0.00,CLR,OVC,0.00,WeatherDisplay:10.37,2013-03-25 17:02:00,
2013-03-25 10:04:00,45.3,35.4,30.05,NW,325,0.0,0.0,68,0.00,CLR,OVC,0.00,WeatherDisplay:10.37,2013-03-25 17:04:00,
2013-03-25 10:05:00,45.3,35.4,30.05,NW,325,0.0,0.0,68,0.00,CLR,OVC,0.00,WeatherDisplay:10.37,2013-03-25 17:05:00,
2013-03-25 10:07:00,45.4,35.5,30.05,NW,325,1.0,0.0,68,0.00,CLR,OVC,0.00,WeatherDisplay:10.37,2013-03-25 17:07:00,
2013-03-25 10:08:00,45.4,35.1,30.05,NW,325,1.1,1.1,67,0.00,CLR,OVC,0.00,WeatherDisplay:10.37,2013-03-25 17:08:00,
2013-03-25 10:09:00,45.5,35.2,30.05,NW,321,2.3,2.3,67,0.00,CLR,OVC,0.00,WeatherDisplay:10.37,2013-03-25 17:09:00,
2013-03-25 10:10:00,45.6,35.3,30.05,NW,321,2.3,0.0,67,0.00,CLR,OVC,0.00,WeatherDisplay:10.37,2013-03-25 17:10:00,
2013-03-25 10:12:00,45.6,35.3,30.04,NW,321,3.5,3.5,67,0.00,CLR,OVC,0.00,WeatherDisplay:10.37,2013-03-25 17:12:00,
2013-03-25 10:13:00,45.7,35.4,30.04,North,5,3.5,3.5,67,0.00,CLR,OVC,0.00,WeatherDisplay:10.37,2013-03-25 17:13:00,
2013-03-25 10:14:00,45.8,35.5,30.04,North,355,3.5,3.5,67,0.00,CLR,OVC,0.00,WeatherDisplay:10.37,2013-03-25 17:14:00,
2013-03-25 10:15:00,45.8,35.5,30.04,North,355,3.5,3.5,67,0.00,CLR,OVC,0.00,WeatherDisplay:10.37,2013-03-25 17:15:00,
2013-03-25 10:17:00,46.0,35.7,30.04,NNW,347,3.5,3.5,67,0.00,CLR,OVC,0.00,WeatherDisplay:10.37,2013-03-25 17:17:00,
2013-03-25 10:18:00,46.0,35.7,30.04,NNW,347,3.5,3.5,67,0.00,CLR,OVC,0.00,WeatherDisplay:10.37,2013-03-25 17:18:00,
2013-03-25 10:19:00,46.2,35.1,30.04,NNW,347,0.0,0.0,65,0.00,CLR,OVC,0.00,WeatherDisplay:10.37,2013-03-25 17:19:00,
2013-03-25 10:20:00,46.2,35.1,30.04,NNW,347,0.0,0.0,65,0.00,CLR,OVC,0.00,WeatherDisplay:10.37,2013-03-25 17:20:00,
2013-03-25 10:23:00,46.4,35.3,30.04,WNW,289,1.1,0.0,65,0.00,CLR,OVC,0.00,WeatherDisplay:10.37,2013-03-25 17:23:00,
2013-03-25 10:24:00,46.5,35.0,30.04,WNW,289,0.0,0.0,64,0.00,CLR,OVC,0.00,WeatherDisplay:10.37,2013-03-25 17:24:00,
2013-03-25 10:25:00,46.5,35.4,30.04,WNW,289,0.0,0.0,65,0.00,CLR,OVC,0.00,WeatherDisplay:10.37,2013-03-25 17:25:00,
2013-03-25 10:28:00,46.7,35.2,30.04,NNW,342,0.0,0.0,64,0.00,CLR,OVC,0.00,WeatherDisplay:10.37,2013-03-25 17:28:00,
2013-03-25 10:30:00,46.7,35.2,30.05,NNW,342,1.1,1.1,64,0.00,CLR,OVC,0.00,WeatherDisplay:10.37,2013-03-25 17:30:00,
2013-03-25 10:33:00,46.9,35.0,30.04,NNW,336,1.1,1.1,63,0.00,CLR,OVC,0.00,WeatherDisplay:10.37,2013-03-25 17:33:00,
2013-03-25 10:34:00,46.9,35.0,30.04,NNW,336,2.3,0.0,63,0.00,CLR,OVC,0.00,WeatherDisplay:10.37,2013-03-25 17:34:00,
2013-03-25 10:35:00,47.0,35.0,30.04,NNW,336,0.0,0.0,63,0.00,CLR,OVC,0.00,WeatherDisplay:10.37,2013-03-25 17:35:00,
2013-03-25 10:38:00,47.0,34.6,30.04,NNW,336,0.0,0.2,62,0.00,CLR,OVC,0.00,WeatherDisplay:10.37,2013-03-25 17:38:00,
2013-03-25 10:40:00,47.2,34.8,30.04,NNW,336,2.3,2.3,62,0.00,CLR,OVC,0.00,WeatherDisplay:10.37,2013-03-25 17:40:00,
2013-03-25 10:43:00,47.4,34.6,30.04,NNW,336,3.5,3.5,61,0.00,CLR,OVC,0.00,WeatherDisplay:10.37,2013-03-25 17:43:00,
2013-03-25 10:45:00,47.6,34.8,30.04,NNW,336,2.3,2.3,61,0.00,CLR,OVC,0.00,WeatherDisplay:10.37,2013-03-25 17:45:00,
2013-03-25 10:48:00,47.8,34.6,30.04,NNW,331,3.5,3.5,60,0.00,CLR,OVC,0.00,WeatherDisplay:10.37,2013-03-25 17:48:00,
2013-03-25 10:50:00,47.9,34.7,30.04,NNW,331,2.0,2.0,60,0.00,CLR,OVC,0.00,WeatherDisplay:10.37,2013-03-25 17:50:00,
2013-03-25 10:54:00,48.3,35.0,30.04,NNW,331,1.1,1.1,60,0.00,CLR,OVC,0.00,WeatherDisplay:10.37,2013-03-25 17:54:00,
2013-03-25 10:55:00,48.5,34.8,30.04,NNW,331,1.1,1.1,59,0.00,CLR,OVC,0.00,WeatherDisplay:10.37,2013-03-25 17:55:00,
2013-03-25 10:59:00,48.9,34.8,30.04,NNW,331,0.0,0.0,58,0.00,CLR,OVC,0.00,WeatherDisplay:10.37,2013-03-25 17:59:00,
2013-03-25 11:00:00,49.0,34.9,30.04,NE,38,5.0,5.0,58,0.00,CLR,OVC,0.00,WeatherDisplay:10.37,2013-03-25 18:00:00,
2013-03-25 11:04:00,48.9,35.6,30.04,NE,38,1.1,1.1,60,0.00,CLR,OVC,0.00,WeatherDisplay:10.37,2013-03-25 18:04:00,
2013-03-25 11:05:00,49.0,36.1,30.04,NNW,335,1.0,1.0,61,0.00,CLR,OVC,0.00,WeatherDisplay:10.37,2013-03-25 18:05:00,
2013-03-25 11:09:00,49.3,36.8,30.04,North,5,3.5,3.5,62,0.00,CLR,OVC,0.00,WeatherDisplay:10.37,2013-03-25 18:09:00,
2013-03-25 11:10:00,49.4,37.3,30.03,NNE,30,0.0,1.0,63,0.00,CLR,OVC,0.00,WeatherDisplay:10.37,2013-03-25 18:10:00,
2013-03-25 11:11:00,49.5,37.4,30.04,NNE,22,3.5,3.5,63,0.00,CLR,OVC,0.00,WeatherDisplay:10.37,2013-03-25 18:11:00,
2013-03-25 11:14:00,49.8,37.7,30.03,NNE,22,0.0,0.0,63,0.00,CLR,OVC,0.00,WeatherDisplay:10.37,2013-03-25 18:14:00,
2013-03-25 11:15:00,50.0,38.3,30.04,NNE,22,2.3,2.3,64,0.00,CLR,OVC,0.00,WeatherDisplay:10.37,2013-03-25 18:15:00,
2013-03-25 11:16:00,50.0,37.1,30.04,NNE,22,2.0,2.0,61,0.00,CLR,OVC,0.00,WeatherDisplay:10.37,2013-03-25 18:16:00,
2013-03-25 11:17:00,50.2,36.8,30.03,NNE,22,3.5,3.5,60,0.00,CLR,OVC,0.00,WeatherDisplay:10.37,2013-03-25 18:17:00,
2013-03-25 11:19:00,50.4,37.0,30.03,NNE,22,3.5,3.5,60,0.00,CLR,OVC,0.00,WeatherDisplay:10.37,2013-03-25 18:19:00,
2013-03-25 11:20:00,50.5,37.9,30.03,NNE,22,0.0,5.0,62,0.00,CLR,OVC,0.00,WeatherDisplay:10.37,2013-03-25 18:20:00,
2013-03-25 11:21:00,50.6,38.5,30.03,NNE,22,4.0,4.0,63,0.00,CLR,OVC,0.00,WeatherDisplay:10.37,2013-03-25 18:21:00,
2013-03-25 11:22:00,50.5,37.1,30.03,NNE,22,2.0,2.0,60,0.00,CLR,OVC,0.00,WeatherDisplay:10.37,2013-03-25 18:22:00,
2013-03-25 11:24:00,50.6,37.6,30.03,ENE,63,3.5,0.0,61,0.00,CLR,OVC,0.00,WeatherDisplay:10.37,2013-03-25 18:24:00,
2013-03-25 11:25:00,50.6,37.2,30.03,ENE,63,3.5,3.5,60,0.00,CLR,OVC,0.00,WeatherDisplay:10.37,2013-03-25 18:25:00,
2013-03-25 11:26:00,50.6,37.2,30.03,ENE,63,3.5,3.5,60,0.00,CLR,OVC,0.00,WeatherDisplay:10.37,2013-03-25 18:26:00,
2013-03-25 11:27:00,50.6,36.4,30.03,NE,46,3.5,3.5,58,0.00,CLR,OVC,0.00,WeatherDisplay:10.37,2013-03-25 18:27:00,
2013-03-25 11:30:00,50.5,35.8,30.03,NE,49,3.5,3.5,57,0.00,CLR,OVC,0.00,WeatherDisplay:10.37,2013-03-25 18:30:00,
2013-03-25 11:31:00,50.6,37.2,30.03,NNE,15,3.5,3.5,60,0.00,CLR,OVC,0.00,WeatherDisplay:10.37,2013-03-25 18:31:00,
2013-03-25 11:33:00,50.8,37.4,30.03,NNE,29,4.6,4.6,60,0.00,CLR,OVC,0.00,WeatherDisplay:10.37,2013-03-25 18:33:00,
2013-03-25 11:35:00,51.1,37.3,30.03,NNE,17,3.5,3.5,59,0.00,CLR,OVC,0.00,WeatherDisplay:10.37,2013-03-25 18:35:00,
2013-03-25 11:37:00,51.4,36.7,30.03,NNE,13,1.1,1.1,57,0.00,CLR,OVC,0.00,WeatherDisplay:10.37,2013-03-25 18:37:00,
2013-03-25 11:38:00,51.4,36.7,30.03,North,5,2.3,2.3,57,0.00,CLR,OVC,0.00,WeatherDisplay:10.37,2013-03-25 18:38:00,
2013-03-25 11:40:00,51.5,37.2,30.03,NE,53,3.5,3.5,58,0.00,CLR,OVC,0.00,WeatherDisplay:10.37,2013-03-25 18:40:00,
2013-03-25 11:41:00,51.6,37.3,30.03,NE,46,3.5,3.5,58,0.00,CLR,OVC,0.00,WeatherDisplay:10.37,2013-03-25 18:41:00,
2013-03-25 11:42:00,51.7,37.8,30.03,NE,46,1.1,1.3,59,0.00,CLR,OVC,0.00,WeatherDisplay:10.37,2013-03-25 18:42:00,
2013-03-25 11:43:00,51.8,36.6,30.03,NE,55,4.0,4.0,56,0.00,CLR,OVC,0.00,WeatherDisplay:10.37,2013-03-25 18:43:00,
2013-03-25 11:45:00,51.8,36.6,30.03,East,90,4.0,4.0,56,0.00,CLR,OVC,0.00,WeatherDisplay:10.37,2013-03-25 18:45:00,
2013-03-25 11:46:00,51.8,36.6,30.03,ENE,78,4.6,4.6,56,0.00,CLR,OVC,0.00,WeatherDisplay:10.37,2013-03-25 18:46:00,
2013-03-25 11:47:00,51.9,35.8,30.03,NNE,28,5.0,5.0,54,0.00,CLR,OVC,0.00,WeatherDisplay:10.37,2013-03-25 18:47:00,
2013-03-25 11:48:00,51.9,35.3,30.03,NNE,28,4.6,4.6,53,0.00,CLR,OVC,0.00,WeatherDisplay:10.37,2013-03-25 18:48:00,
2013-03-25 11:50:00,51.9,36.2,30.03,NNE,28,3.5,3.5,55,0.00,CLR,OVC,0.00,WeatherDisplay:10.37,2013-03-25 18:50:00,
2013-03-25 11:51:00,51.9,35.8,30.03,NNE,28,3.5,3.5,54,0.00,CLR,OVC,0.00,WeatherDisplay:10.37,2013-03-25 18:51:00,
2013-03-25 11:53:00,51.9,36.7,30.03,NNE,28,1.1,0.0,56,0.00,CLR,OVC,0.00,WeatherDisplay:10.37,2013-03-25 18:53:00,
2013-03-25 11:55:00,52.0,36.3,30.03,SSW,200,4.0,4.0,55,0.00,CLR,OVC,0.00,WeatherDisplay:10.37,2013-03-25 18:55:00,
2013-03-25 11:57:00,52.3,36.6,30.03,WSW,239,3.5,3.5,55,0.00,CLR,OVC,0.00,WeatherDisplay:10.37,2013-03-25 18:57:00,
2013-03-25 11:58:00,52.4,37.6,30.03,SSW,196,5.0,5.0,57,0.00,CLR,OVC,0.00,WeatherDisplay:10.37,2013-03-25 18:58:00,
2013-03-25 11:59:00,52.4,37.2,30.03,SSE,165,6.0,6.0,56,0.00,CLR,OVC,0.00,WeatherDisplay:10.37,2013-03-25 18:59:00,
2013-03-25 12:00:00,52.5,36.3,30.03,SE,142,6.9,6.9,54,0.00,CLR,OVC,0.00,WeatherDisplay:10.37,2013-03-25 19:00:00,
2013-03-25 12:02:00,52.4,35.8,30.03,East,93,5.0,5.0,53,0.00,CLR,OVC,0.00,WeatherDisplay:10.37,2013-03-25 19:02:00,
2013-03-25 12:03:00,52.4,35.3,30.02,East,82,4.6,4.6,52,0.00,CLR,OVC,0.00,WeatherDisplay:10.37,2013-03-25 19:03:00,
2013-03-25 12:04:00,52.3,35.2,30.02,East,80,3.5,3.5,52,0.00,CLR,OVC,0.00,WeatherDisplay:10.37,2013-03-25 19:04:00,
2013-03-25 12:05:00,52.3,36.1,30.02,SE,139,3.5,3.5,54,0.00,CLR,OVC,0.00,WeatherDisplay:10.37,2013-03-25 19:05:00,
2013-03-25 12:07:00,52.6,35.9,30.02,East,82,4.6,4.6,53,0.00,CLR,OVC,0.00,WeatherDisplay:10.37,2013-03-25 19:07:00,
2013-03-25 12:08:00,52.8,36.1,30.02,South,191,3.5,3.5,53,0.00,CLR,OVC,0.00,WeatherDisplay:10.37,2013-03-25 19:08:00,
2013-03-25 12:09:00,53.0,35.3,30.02,SW,215,5.8,5.8,51,0.00,CLR,OVC,0.00,WeatherDisplay:10.37,2013-03-25 19:09:00,
2013-03-25 12:10:00,53.1,35.4,30.02,SW,220,3.5,3.5,51,0.00,CLR,OVC,0.00,WeatherDisplay:10.37,2013-03-25 19:10:00,
2013-03-25 12:12:00,53.0,34.3,30.02,SW,223,3.5,3.5,49,0.00,CLR,OVC,0.00,WeatherDisplay:10.37,2013-03-25 19:12:00,
2013-03-25 12:13:00,53.1,34.9,30.02,SW,223,3.5,3.5,50,0.00,CLR,OVC,0.00,WeatherDisplay:10.37,2013-03-25 19:13:00,
2013-03-25 12:14:00,53.2,35.5,30.02,SW,223,3.5,3.5,51,0.00,CLR,OVC,0.00,WeatherDisplay:10.37,2013-03-25 19:14:00,
2013-03-25 12:15:00,53.3,35.1,30.02,SSW,212,4.0,4.0,50,0.00,CLR,OVC,0.00,WeatherDisplay:10.37,2013-03-25 19:15:00,
2013-03-25 12:17:00,53.4,35.2,30.02,SW,234,3.5,3.5,50,0.00,CLR,OVC,0.00,WeatherDisplay:10.37,2013-03-25 19:17:00,
2013-03-25 12:18:00,53.5,35.3,30.02,SW,228,3.5,3.5,50,0.00,CLR,OVC,0.00,WeatherDisplay:10.37,2013-03-25 19:18:00,
2013-03-25 12:19:00,53.7,36.5,30.02,SE,137,3.5,3.5,52,0.00,CLR,OVC,0.00,WeatherDisplay:10.37,2013-03-25 19:19:00,
2013-03-25 12:20:00,53.9,35.7,30.02,SE,137,3.5,3.5,50,0.00,CLR,OVC,0.00,WeatherDisplay:10.37,2013-03-25 19:20:00,
2013-03-25 12:23:00,54.0,36.3,30.02,ESE,115,1.1,1.1,51,0.00,CLR,OVC,0.00,WeatherDisplay:10.37,2013-03-25 19:23:00,
2013-03-25 12:24:00,54.1,36.4,30.02,SSW,201,1.1,1.1,51,0.00,CLR,OVC,0.00,WeatherDisplay:10.37,2013-03-25 19:24:00,
2013-03-25 12:25:00,54.2,36.5,30.02,South,176,1.1,1.1,51,0.00,CLR,OVC,0.00,WeatherDisplay:10.37,2013-03-25 19:25:00,
2013-03-25 12:28:00,54.4,37.1,30.01,SE,124,3.5,3.5,52,0.00,CLR,OVC,0.00,WeatherDisplay:10.37,2013-03-25 19:28:00,
2013-03-25 12:29:00,54.5,37.7,30.01,South,171,3.5,3.5,53,0.00,CLR,OVC,0.00,WeatherDisplay:10.37,2013-03-25 19:29:00,
2013-03-25 12:33:00,54.9,38.1,30.01,SSE,163,2.3,2.3,53,0.00,CLR,OVC,0.00,WeatherDisplay:10.37,2013-03-25 19:33:00,
2013-03-25 12:34:00,55.0,37.7,30.01,NNE,30,1.1,1.1,52,0.00,CLR,OVC,0.00,WeatherDisplay:10.37,2013-03-25 19:34:00,
2013-03-25 12:38:00,55.4,36.5,30.01,NNE,15,1.1,1.1,49,0.00,CLR,OVC,0.00,WeatherDisplay:10.37,2013-03-25 19:38:00,
2013-03-25 12:39:00,55.5,36.1,30.01,NNE,15,2.3,0.0,48,0.00,CLR,OVC,0.00,WeatherDisplay:10.37,2013-03-25 19:39:00,
2013-03-25 12:43:00,55.5,35.6,30.01,ESE,109,4.6,4.6,47,0.00,CLR,OVC,0.00,WeatherDisplay:10.37,2013-03-25 19:43:00,
2013-03-25 12:44:00,55.5,35.6,30.01,ESE,109,2.3,2.3,47,0.00,CLR,OVC,0.00,WeatherDisplay:10.37,2013-03-25 19:44:00,
2013-03-25 12:48:00,55.6,36.7,30.01,ESE,108,3.5,3.5,49,0.00,CLR,OVC,0.00,WeatherDisplay:10.37,2013-03-25 19:48:00,
2013-03-25 12:49:00,55.6,36.7,30.01,East,91,2.3,2.4,49,0.00,CLR,OVC,0.00,WeatherDisplay:10.37,2013-03-25 19:49:00,
2013-03-25 12:53:00,55.8,36.4,30.01,ENE,59,2.0,2.0,48,0.00,CLR,OVC,0.00,WeatherDisplay:10.37,2013-03-25 19:53:00,
2013-03-25 12:54:00,55.9,37.5,30.01,NNE,16,3.5,3.5,50,0.00,CLR,OVC,0.00,WeatherDisplay:10.37,2013-03-25 19:54:00,
2013-03-25 12:58:00,56.4,37.5,30.00,ESE,107,5.0,5.0,49,0.00,CLR,OVC,0.00,WeatherDisplay:10.37,2013-03-25 19:58:00,
2013-03-25 12:59:00,56.4,37.5,30.00,SE,132,2.0,2.0,49,0.00,CLR,OVC,0.00,WeatherDisplay:10.37,2013-03-25 19:59:00,
2013-03-25 13:03:00,56.8,36.8,30.00,North,360,6.9,6.9,47,0.00,CLR,OVC,0.00,WeatherDisplay:10.37,2013-03-25 20:03:00,
2013-03-25 13:04:00,56.9,37.4,30.00,North,360,6.9,6.9,48,0.00,CLR,OVC,0.00,WeatherDisplay:10.37,2013-03-25 20:04:00,
2013-03-25 13:08:00,57.5,36.9,30.00,North,355,1.1,1.1,46,0.00,CLR,OVC,0.00,WeatherDisplay:10.37,2013-03-25 20:08:00,
2013-03-25 13:09:00,57.6,37.0,30.00,North,355,1.1,0.0,46,0.00,CLR,OVC,0.00,WeatherDisplay:10.37,2013-03-25 20:09:00,
2013-03-25 13:14:00,58.0,37.3,30.00,SSE,163,4.6,4.6,46,0.00,CLR,OVC,0.00,WeatherDisplay:10.37,2013-03-25 20:14:00,
2013-03-25 13:15:00,58.0,36.8,30.00,ESE,107,4.6,4.6,45,0.00,CLR,OVC,0.00,WeatherDisplay:10.37,2013-03-25 20:15:00,
2013-03-25 13:19:00,57.9,36.7,30.00,ESE,104,5.8,5.8,45,0.00,CLR,OVC,0.00,WeatherDisplay:10.37,2013-03-25 20:19:00,
2013-03-25 13:20:00,57.7,35.9,30.00,East,85,3.5,3.5,44,0.00,CLR,OVC,0.00,WeatherDisplay:10.37,2013-03-25 20:20:00,
2013-03-25 13:24:00,57.6,36.4,30.00,ENE,58,3.5,3.5,45,0.00,CLR,OVC,0.00,WeatherDisplay:10.37,2013-03-25 20:24:00,
2013-03-25 13:25:00,57.5,36.9,30.00,East,90,3.5,3.5,46,0.00,CLR,OVC,0.00,WeatherDisplay:10.37,2013-03-25 20:25:00,
2013-03-25 13:29:00,57.8,37.1,30.00,NNE,18,2.3,2.3,46,0.00,CLR,OVC,0.00,WeatherDisplay:10.37,2013-03-25 20:29:00,
2013-03-25 13:30:00,57.9,37.8,30.00,NNE,18,3.5,3.5,47,0.00,CLR,OVC,0.00,WeatherDisplay:10.37,2013-03-25 20:30:00,
2013-03-25 13:34:00,58.5,37.8,29.99,North,5,4.6,4.6,46,0.00,CLR,OVC,0.00,WeatherDisplay:10.37,2013-03-25 20:34:00,
2013-03-25 13:35:00,58.5,36.6,29.99,North,5,3.5,3.5,44,0.00,CLR,OVC,0.00,WeatherDisplay:10.37,2013-03-25 20:35:00,
2013-03-25 13:40:00,58.1,36.9,29.99,East,90,6.9,6.9,45,0.00,CLR,OVC,0.00,WeatherDisplay:10.37,2013-03-25 20:40:00,
2013-03-25 13:45:00,57.5,36.3,29.99,East,80,3.5,3.5,45,0.00,CLR,OVC,0.00,WeatherDisplay:10.37,2013-03-25 20:45:00,
2013-03-25 13:50:00,57.3,37.2,29.99,East,80,3.5,3.5,47,0.00,CLR,OVC,0.00,WeatherDisplay:10.37,2013-03-25 20:50:00,
2013-03-25 13:55:00,57.5,37.4,29.99,ESE,115,2.3,2.3,47,0.00,CLR,OVC,0.00,WeatherDisplay:10.37,2013-03-25 20:55:00,
2013-03-25 14:00:00,57.8,38.2,29.99,ESE,115,1.1,1.1,48,0.00,CLR,OVC,0.00,WeatherDisplay:10.37,2013-03-25 21:00:00,
2013-03-25 14:05:00,58.2,37.5,29.99,SE,130,1.1,1.1,46,0.00,CLR,OVC,0.00,WeatherDisplay:10.37,2013-03-25 21:05:00,
2013-03-25 14:06:00,58.2,36.9,29.99,SE,130,2.3,2.3,45,0.00,CLR,OVC,0.00,WeatherDisplay:10.37,2013-03-25 21:06:00,
2013-03-25 14:10:00,58.4,38.2,29.98,ESE,110,3.5,3.5,47,0.00,CLR,OVC,0.00,WeatherDisplay:10.37,2013-03-25 21:10:00,
2013-03-25 14:11:00,58.5,38.9,29.98,ESE,115,2.3,2.3,48,0.00,CLR,OVC,0.00,WeatherDisplay:10.37,2013-03-25 21:11:00,
2013-03-25 14:12:00,58.7,37.4,29.98,ESE,121,2.3,2.3,45,0.00,CLR,OVC,0.00,WeatherDisplay:10.37,2013-03-25 21:12:00,
2013-03-25 14:15:00,58.7,37.4,29.98,East,93,5.8,5.8,45,0.00,CLR,OVC,0.00,WeatherDisplay:10.37,2013-03-25 21:15:00,
2013-03-25 14:16:00,58.6,37.3,29.98,East,93,3.5,3.5,45,0.00,CLR,OVC,0.00,WeatherDisplay:10.37,2013-03-25 21:16:00,
2013-03-25 14:17:00,58.4,36.6,29.98,ENE,60,5.8,5.8,44,0.00,CLR,OVC,0.00,WeatherDisplay:10.37,2013-03-25 21:17:00,
2013-03-25 14:20:00,58.0,36.8,29.98,ENE,71,3.5,3.5,45,0.00,CLR,OVC,0.00,WeatherDisplay:10.37,2013-03-25 21:20:00,
2013-03-25 14:21:00,57.8,36.0,29.98,ENE,71,3.5,3.5,44,0.00,CLR,OVC,0.00,WeatherDisplay:10.37,2013-03-25 21:21:00,
2013-03-25 14:22:00,57.7,37.0,29.98,ENE,71,1.1,0.0,46,0.00,CLR,OVC,0.00,WeatherDisplay:10.37,2013-03-25 21:22:00,
2013-03-25 14:25:00,57.7,36.5,29.98,ENE,71,1.1,1.1,45,0.00,CLR,OVC,0.00,WeatherDisplay:10.37,2013-03-25 21:25:00,
2013-03-25 14:26:00,57.8,36.6,29.98,ENE,71,0.0,0.0,45,0.00,CLR,OVC,0.00,WeatherDisplay:10.37,2013-03-25 21:26:00,
2013-03-25 14:28:00,58.1,38.0,29.98,SE,131,4.6,4.6,47,0.00,CLR,OVC,0.00,WeatherDisplay:10.37,2013-03-25 21:28:00,
2013-03-25 14:30:00,58.4,37.7,29.98,SE,131,4.6,4.6,46,0.00,CLR,OVC,0.00,WeatherDisplay:10.37,2013-03-25 21:30:00,
2013-03-25 14:31:00,58.4,37.7,29.98,South,175,6.0,6.0,46,0.00,CLR,OVC,0.00,WeatherDisplay:10.37,2013-03-25 21:31:00,
2013-03-25 14:33:00,58.7,38.0,29.97,South,186,3.5,3.5,46,0.00,CLR,OVC,0.00,WeatherDisplay:10.37,2013-03-25 21:33:00,
2013-03-25 14:35:00,59.0,37.7,29.97,South,186,3.5,3.5,45,0.00,CLR,OVC,0.00,WeatherDisplay:10.37,2013-03-25 21:35:00,
2013-03-25 14:37:00,59.1,38.3,29.97,South,186,2.3,2.3,46,0.00,CLR,OVC,0.00,WeatherDisplay:10.37,2013-03-25 21:37:00,
2013-03-25 14:38:00,59.3,37.9,29.97,South,178,4.0,4.0,45,0.00,CLR,OVC,0.00,WeatherDisplay:10.37,2013-03-25 21:38:00,
2013-03-25 14:40:00,59.3,36.8,29.97,South,178,3.5,3.5,43,0.00,CLR,OVC,0.00,WeatherDisplay:10.37,2013-03-25 21:40:00,
2013-03-25 14:41:00,59.3,38.5,29.97,South,178,3.5,3.5,46,0.00,CLR,OVC,0.00,WeatherDisplay:10.37,2013-03-25 21:41:00,
2013-03-25 14:42:00,59.3,37.9,29.97,South,178,4.6,4.6,45,0.00,CLR,OVC,0.00,WeatherDisplay:10.37,2013-03-25 21:42:00,
2013-03-25 14:43:00,59.3,38.5,29.97,South,178,4.6,4.6,46,0.00,CLR,OVC,0.00,WeatherDisplay:10.37,2013-03-25 21:43:00,
2013-03-25 14:46:00,59.5,37.6,29.97,SSE,165,3.5,3.5,44,0.00,CLR,OVC,0.00,WeatherDisplay:10.37,2013-03-25 21:46:00,
2013-03-25 14:47:00,59.5,38.7,29.97,SSE,165,2.3,2.3,46,0.00,CLR,OVC,0.00,WeatherDisplay:10.37,2013-03-25 21:47:00,
2013-03-25 14:48:00,59.6,38.8,29.97,SSE,165,1.1,0.0,46,0.00,CLR,OVC,0.00,WeatherDisplay:10.37,2013-03-25 21:48:00,
2013-03-25 14:51:00,59.6,37.6,29.97,South,172,3.5,3.5,44,0.00,CLR,OVC,0.00,WeatherDisplay:10.37,2013-03-25 21:51:00,
2013-03-25 14:52:00,59.6,37.6,29.97,South,172,3.5,3.5,44,0.00,CLR,OVC,0.00,WeatherDisplay:10.37,2013-03-25 21:52:00,
2013-03-25 14:53:00,59.6,38.2,29.97,South,188,4.6,4.6,45,0.00,CLR,OVC,0.00,WeatherDisplay:10.37,2013-03-25 21:53:00,
2013-03-25 14:57:00,59.3,36.8,29.97,ESE,121,3.5,3.5,43,0.00,CLR,OVC,0.00,WeatherDisplay:10.37,2013-03-25 21:57:00,
2013-03-25 14:58:00,59.3,37.9,29.97,South,180,3.5,3.5,45,0.00,CLR,OVC,0.00,WeatherDisplay:10.37,2013-03-25 21:58:00,
2013-03-25 15:02:00,59.4,37.5,29.97,South,185,3.5,3.5,44,0.00,CLR,OVC,0.00,WeatherDisplay:10.37,2013-03-25 22:02:00,
2013-03-25 15:03:00,59.4,36.9,29.97,South,185,3.5,3.5,43,0.00,CLR,OVC,0.00,WeatherDisplay:10.37,2013-03-25 22:03:00,
2013-03-25 15:04:00,59.3,37.4,29.97,South,180,3.5,3.5,44,0.00,CLR,OVC,0.00,WeatherDisplay:10.37,2013-03-25 22:04:00,
2013-03-25 15:07:00,59.1,37.2,29.97,East,91,5.8,5.8,44,0.00,CLR,OVC,0.00,WeatherDisplay:10.37,2013-03-25 22:07:00,
2013-03-25 15:08:00,59.0,38.2,29.97,NE,53,3.5,3.5,46,0.00,CLR,OVC,0.00,WeatherDisplay:10.37,2013-03-25 22:08:00,
2013-03-25 15:09:00,59.0,38.2,29.97,ESE,105,2.3,2.3,46,0.00,CLR,OVC,0.00,WeatherDisplay:10.37,2013-03-25 22:09:00,
2013-03-25 15:12:00,59.0,38.8,29.96,ESE,112,2.3,2.3,47,0.00,CLR,OVC,0.00,WeatherDisplay:10.37,2013-03-25 22:12:00,
2013-03-25 15:13:00,59.1,37.8,29.96,ESE,107,4.0,4.0,45,0.00,CLR,OVC,0.00,WeatherDisplay:10.37,2013-03-25 22:13:00,
2013-03-25 15:14:00,59.0,37.7,29.97,East,94,4.6,4.6,45,0.00,CLR,OVC,0.00,WeatherDisplay:10.37,2013-03-25 22:14:00,
2013-03-25 15:17:00,58.8,37.5,29.96,East,89,1.1,1.1,45,0.00,CLR,OVC,0.00,WeatherDisplay:10.37,2013-03-25 22:17:00,
2013-03-25 15:18:00,58.8,37.5,29.96,ENE,67,6.0,6.0,45,0.00,CLR,OVC,0.00,WeatherDisplay:10.37,2013-03-25 22:18:00,
2013-03-25 15:19:00,58.6,37.3,29.96,ENE,61,5.8,5.8,45,0.00,CLR,OVC,0.00,WeatherDisplay:10.37,2013-03-25 22:19:00,
2013-03-25 15:20:00,58.5,37.2,29.96,ENE,61,3.5,3.5,45,0.00,CLR,OVC,0.00,WeatherDisplay:10.37,2013-03-25 22:20:00,
2013-03-25 15:23:00,58.2,37.5,29.96,ENE,67,5.8,5.8,46,0.00,CLR,OVC,0.00,WeatherDisplay:10.37,2013-03-25 22:23:00,
2013-03-25 15:24:00,58.0,36.8,29.96,ENE,66,4.6,4.6,45,0.00,CLR,OVC,0.00,WeatherDisplay:10.37,2013-03-25 22:24:00,
2013-03-25 15:25:00,57.9,36.7,29.96,ENE,65,4.6,4.6,45,0.00,CLR,OVC,0.00,WeatherDisplay:10.37,2013-03-25 22:25:00,
2013-03-25 15:28:00,57.5,36.9,29.96,ENE,64,3.5,3.5,46,0.00,CLR,OVC,0.00,WeatherDisplay:10.37,2013-03-25 22:28:00,
2013-03-25 15:29:00,57.5,36.9,29.96,ENE,65,4.0,4.0,46,0.00,CLR,OVC,0.00,WeatherDisplay:10.37,2013-03-25 22:29:00,
2013-03-25 15:30:00,57.5,36.9,29.96,ENE,65,3.5,3.5,46,0.00,CLR,OVC,0.00,WeatherDisplay:10.37,2013-03-25 22:30:00,
2013-03-25 15:33:00,57.5,37.4,29.96,ENE,65,2.3,2.3,47,0.00,CLR,OVC,0.00,WeatherDisplay:10.37,2013-03-25 22:33:00,
2013-03-25 15:35:00,57.5,37.4,29.96,ENE,65,2.3,0.0,47,0.00,CLR,OVC,0.00,WeatherDisplay:10.37,2013-03-25 22:35:00,
2013-03-25 15:38:00,57.7,37.6,29.96,East,92,3.5,0.0,47,0.00,CLR,OVC,0.00,WeatherDisplay:10.37,2013-03-25 22:38:00,
2013-03-25 15:40:00,57.7,37.6,29.96,East,86,3.5,3.5,47,0.00,CLR,OVC,0.00,WeatherDisplay:10.37,2013-03-25 22:40:00,
2013-03-25 15:43:00,57.9,37.8,29.96,ENE,59,2.3,2.3,47,0.00,CLR,OVC,0.00,WeatherDisplay:10.37,2013-03-25 22:43:00,
2013-03-25 15:44:00,57.9,37.8,29.96,ENE,59,2.3,2.3,47,0.00,CLR,OVC,0.00,WeatherDisplay:10.37,2013-03-25 22:44:00,
2013-03-25 15:45:00,58.0,37.9,29.96,ENE,59,1.1,1.1,47,0.00,CLR,OVC,0.00,WeatherDisplay:10.37,2013-03-25 22:45:00,
2013-03-25 15:48:00,58.1,38.0,29.96,NNE,31,3.5,3.5,47,0.00,CLR,OVC,0.00,WeatherDisplay:10.37,2013-03-25 22:48:00,
2013-03-25 15:49:00,58.2,38.1,29.96,NNE,31,3.5,3.5,47,0.00,CLR,OVC,0.00,WeatherDisplay:10.37,2013-03-25 22:49:00,
2013-03-25 15:50:00,58.2,38.1,29.96,NNE,31,1.1,0.0,47,0.00,CLR,OVC,0.00,WeatherDisplay:10.37,2013-03-25 22:50:00,
2013-03-25 15:54:00,58.3,37.6,29.95,NNE,31,1.0,0.0,46,0.00,CLR,OVC,0.00,WeatherDisplay:10.37,2013-03-25 22:54:00,
2013-03-25 15:55:00,58.3,38.1,29.96,NNE,32,1.0,3.0,47,0.00,CLR,OVC,0.00,WeatherDisplay:10.37,2013-03-25 22:55:00,
2013-03-25 15:56:00,58.2,37.5,29.95,NNE,15,1.1,1.1,46,0.00,CLR,OVC,0.00,WeatherDisplay:10.37,2013-03-25 22:56:00,
2013-03-25 15:59:00,58.3,38.1,29.95,NNE,15,1.1,0.0,47,0.00,CLR,OVC,0.00,WeatherDisplay:10.37,2013-03-25 22:59:00,
2013-03-25 16:00:00,58.3,38.7,29.95,NNE,15,0.0,0.0,48,0.00,CLR,OVC,0.00,WeatherDisplay:10.37,2013-03-25 23:00:00,
2013-03-25 16:02:00,58.4,38.2,29.95,NNE,14,0.0,0.0,47,0.00,CLR,OVC,0.00,WeatherDisplay:10.37,2013-03-25 23:02:00,
2013-03-25 16:04:00,58.4,38.2,29.95,NNE,14,0.0,0.0,47,0.00,CLR,OVC,0.00,WeatherDisplay:10.37,2013-03-25 23:04:00,
2013-03-25 16:05:00,58.5,38.3,29.95,NNE,14,0.0,0.0,47,0.00,CLR,OVC,0.00,WeatherDisplay:10.37,2013-03-25 23:05:00,
2013-03-25 16:07:00,58.4,38.2,29.95,NNE,14,3.5,3.5,47,0.00,CLR,OVC,0.00,WeatherDisplay:10.37,2013-03-25 23:07:00,
2013-03-25 16:09:00,58.4,38.2,29.95,NNW,331,3.5,3.5,47,0.00,CLR,OVC,0.00,WeatherDisplay:10.37,2013-03-25 23:09:00,
2013-03-25 16:10:00,58.4,37.7,29.95,NNW,328,2.3,2.3,46,0.00,CLR,OVC,0.00,WeatherDisplay:10.37,2013-03-25 23:10:00,
2013-03-25 16:12:00,58.5,38.9,29.95,NNW,328,0.0,0.0,48,0.00,CLR,OVC,0.00,WeatherDisplay:10.37,2013-03-25 23:12:00,
2013-03-25 16:14:00,58.5,38.3,29.95,NNW,328,0.0,0.1,47,0.00,CLR,OVC,0.00,WeatherDisplay:10.37,2013-03-25 23:14:00,
2013-03-25 16:15:00,58.6,38.4,29.95,NNW,328,1.1,0.0,47,0.00,CLR,OVC,0.00,WeatherDisplay:10.37,2013-03-25 23:15:00,
2013-03-25 16:16:00,58.6,39.5,29.95,NNW,328,0.0,0.0,49,0.00,CLR,OVC,0.00,WeatherDisplay:10.37,2013-03-25 23:16:00,
2013-03-25 16:18:00,58.7,38.5,29.95,NNW,328,1.1,1.1,47,0.00,CLR,OVC,0.00,WeatherDisplay:10.37,2013-03-25 23:18:00,
2013-03-25 16:19:00,58.8,38.6,29.95,NNW,327,3.0,3.0,47,0.00,CLR,OVC,0.00,WeatherDisplay:10.37,2013-03-25 23:19:00,
2013-03-25 16:20:00,58.9,39.2,29.95,NNW,327,3.5,3.5,48,0.00,CLR,OVC,0.00,WeatherDisplay:10.37,2013-03-25 23:20:00,
2013-03-25 16:21:00,58.9,38.1,29.95,NNW,327,4.6,4.6,46,0.00,CLR,OVC,0.00,WeatherDisplay:10.37,2013-03-25 23:21:00,
2013-03-25 16:23:00,59.0,37.7,29.95,NNW,327,2.3,2.3,45,0.00,CLR,OVC,0.00,WeatherDisplay:10.37,2013-03-25 23:23:00,
2013-03-25 16:24:00,59.0,37.7,29.95,NE,48,3.5,3.5,45,0.00,CLR,OVC,0.00,WeatherDisplay:10.37,2013-03-25 23:24:00,
2013-03-25 16:25:00,59.1,37.8,29.95,NE,37,4.6,4.6,45,0.00,CLR,OVC,0.00,WeatherDisplay:10.37,2013-03-25 23:25:00,
2013-03-25 16:26:00,59.0,37.7,29.95,NE,36,3.5,3.5,45,0.00,CLR,OVC,0.00,WeatherDisplay:10.37,2013-03-25 23:26:00,
2013-03-25 16:28:00,59.0,38.8,29.95,North,9,1.1,1.1,47,0.00,CLR,OVC,0.00,WeatherDisplay:10.37,2013-03-25 23:28:00,
2013-03-25 16:29:00,59.0,38.2,29.95,North,9,1.1,1.1,46,0.00,CLR,OVC,0.00,WeatherDisplay:10.37,2013-03-25 23:29:00,
2013-03-25 16:30:00,59.0,38.2,29.95,North,5,3.5,3.5,46,0.00,CLR,OVC,0.00,WeatherDisplay:10.37,2013-03-25 23:30:00,
2013-03-25 16:31:00,59.0,37.7,29.94,NNW,339,5.0,5.0,45,0.00,CLR,OVC,0.00,WeatherDisplay:10.37,2013-03-25 23:31:00,
2013-03-25 16:34:00,59.0,38.2,29.95,NNW,339,1.1,1.1,46,0.00,CLR,OVC,0.00,WeatherDisplay:10.37,2013-03-25 23:34:00,
2013-03-25 16:35:00,59.0,38.2,29.95,NNW,339,2.3,2.3,46,0.00,CLR,OVC,0.00,WeatherDisplay:10.37,2013-03-25 23:35:00,
2013-03-25 16:36:00,59.0,38.2,29.95,NNW,339,2.3,2.3,46,0.00,CLR,OVC,0.00,WeatherDisplay:10.37,2013-03-25 23:36:00,
2013-03-25 16:39:00,59.0,37.7,29.95,NNW,329,1.1,1.1,45,0.00,CLR,OVC,0.00,WeatherDisplay:10.37,2013-03-25 23:39:00,
2013-03-25 16:40:00,58.9,37.6,29.95,NNW,329,3.5,3.5,45,0.00,CLR,OVC,0.00,WeatherDisplay:10.37,2013-03-25 23:40:00,
2013-03-25 16:42:00,58.9,37.6,29.95,NNW,329,2.3,0.0,45,0.00,CLR,OVC,0.00,WeatherDisplay:10.37,2013-03-25 23:42:00,
2013-03-25 16:44:00,58.9,37.6,29.94,NNW,329,1.1,1.1,45,0.00,CLR,OVC,0.00,WeatherDisplay:10.37,2013-03-25 23:44:00,
2013-03-25 16:46:00,58.9,37.6,29.94,NNW,329,0.0,0.0,45,0.00,CLR,OVC,0.00,WeatherDisplay:10.37,2013-03-25 23:46:00,
2013-03-25 16:47:00,58.9,37.6,29.94,NNW,329,0.0,0.2,45,0.00,CLR,OVC,0.00,WeatherDisplay:10.37,2013-03-25 23:47:00,
2013-03-25 16:49:00,58.9,37.6,29.95,NNW,329,3.5,3.5,45,0.00,CLR,OVC,0.00,WeatherDisplay:10.37,2013-03-25 23:49:00,
2013-03-25 16:51:00,58.9,38.1,29.94,NNW,329,1.0,0.0,46,0.00,CLR,OVC,0.00,WeatherDisplay:10.37,2013-03-25 23:51:00,
2013-03-25 16:52:00,58.9,38.1,29.94,NNW,329,0.0,0.1,46,0.00,CLR,OVC,0.00,WeatherDisplay:10.37,2013-03-25 23:52:00,
2013-03-25 16:54:00,58.9,37.6,29.94,East,98,3.5,3.5,45,0.00,CLR,OVC,0.00,WeatherDisplay:10.37,2013-03-25 23:54:00,
2013-03-25 16:57:00,59.0,38.2,29.94,NE,34,3.5,3.5,46,0.00,CLR,OVC,0.00,WeatherDisplay:10.37,2013-03-25 23:57:00,
2013-03-25 16:59:00,59.1,38.3,29.94,NNE,17,1.1,1.1,46,0.00,CLR,OVC,0.00,WeatherDisplay:10.37,2013-03-25 23:59:00,
2013-03-25 17:02:00,59.1,38.9,29.94,NNE,16,0.0,0.0,47,0.00,CLR,OVC,0.00,WeatherDisplay:10.37,2013-03-26 00:02:00,
2013-03-25 17:05:00,59.1,37.8,29.94,NNE,15,0.0,0.1,45,0.00,CLR,OVC,0.00,WeatherDisplay:10.37,2013-03-26 00:05:00,
2013-03-25 17:07:00,59.1,37.8,29.94,NNE,30,3.0,3.0,45,0.00,CLR,OVC,0.00,WeatherDisplay:10.37,2013-03-26 00:07:00,
2013-03-25 17:10:00,59.1,38.3,29.94,North,5,2.3,2.3,46,0.00,CLR,OVC,0.00,WeatherDisplay:10.37,2013-03-26 00:10:00,
2013-03-25 17:12:00,59.1,37.8,29.94,North,5,1.1,0.0,45,0.00,CLR,OVC,0.00,WeatherDisplay:10.37,2013-03-26 00:12:00,
2013-03-25 17:15:00,59.0,38.2,29.94,NNE,12,0.0,0.0,46,0.00,CLR,OVC,0.00,WeatherDisplay:10.37,2013-03-26 00:15:00,
2013-03-25 17:17:00,58.9,37.6,29.94,North,11,3.5,3.5,45,0.00,CLR,OVC,0.00,WeatherDisplay:10.37,2013-03-26 00:17:00,
2013-03-25 17:20:00,58.9,38.1,29.94,North,11,1.1,1.1,46,0.00,CLR,OVC,0.00,WeatherDisplay:10.37,2013-03-26 00:20:00,
2013-03-25 17:22:00,58.9,38.1,29.94,North,11,2.3,2.3,46,0.00,CLR,OVC,0.00,WeatherDisplay:10.37,2013-03-26 00:22:00,
2013-03-25 17:25:00,58.7,38.0,29.94,North,11,3.5,0.0,46,0.00,CLR,OVC,0.00,WeatherDisplay:10.37,2013-03-26 00:25:00,
2013-03-25 17:28:00,58.6,38.4,29.94,North,11,0.0,0.0,47,0.00,CLR,OVC,0.00,WeatherDisplay:10.37,2013-03-26 00:28:00,
2013-03-25 17:30:00,58.6,38.4,29.94,North,11,0.0,0.0,47,0.00,CLR,OVC,0.00,WeatherDisplay:10.37,2013-03-26 00:30:00,
2013-03-25 17:33:00,58.5,38.3,29.94,North,11,3.5,3.5,47,0.00,CLR,OVC,0.00,WeatherDisplay:10.37,2013-03-26 00:33:00,
2013-03-25 17:35:00,58.4,37.7,29.94,North,11,0.0,0.0,46,0.00,CLR,OVC,0.00,WeatherDisplay:10.37,2013-03-26 00:35:00,
2013-03-25 17:38:00,58.4,38.2,29.94,North,11,0.0,0.0,47,0.00,CLR,OVC,0.00,WeatherDisplay:10.37,2013-03-26 00:38:00,
2013-03-25 17:40:00,58.3,38.1,29.94,North,11,0.0,0.0,47,0.00,CLR,OVC,0.00,WeatherDisplay:10.37,2013-03-26 00:40:00,
2013-03-25 17:43:00,58.3,38.7,29.94,North,11,0.0,0.0,48,0.00,CLR,OVC,0.00,WeatherDisplay:10.37,2013-03-26 00:43:00,
2013-03-25 17:45:00,58.2,38.6,29.94,North,11,0.0,0.0,48,0.00,CLR,OVC,0.00,WeatherDisplay:10.37,2013-03-26 00:45:00,
2013-03-25 17:48:00,58.2,39.1,29.94,North,11,0.0,0.0,49,0.00,CLR,OVC,0.00,WeatherDisplay:10.37,2013-03-26 00:48:00,
2013-03-25 17:50:00,58.2,39.1,29.94,North,11,1.1,1.1,49,0.00,CLR,OVC,0.00,WeatherDisplay:10.37,2013-03-26 00:50:00,
2013-03-25 17:53:00,58.1,39.0,29.94,North,11,1.1,0.0,49,0.00,CLR,OVC,0.00,WeatherDisplay:10.37,2013-03-26 00:53:00,
2013-03-25 17:55:00,58.0,38.9,29.94,North,11,2.3,2.3,49,0.00,CLR,OVC,0.00,WeatherDisplay:10.37,2013-03-26 00:55:00,
2013-03-25 17:58:00,58.0,38.4,29.94,NW,305,0.0,0.0,48,0.00,CLR,OVC,0.00,WeatherDisplay:10.37,2013-03-26 00:58:00,
2013-03-25 17:59:00,58.0,38.9,29.94,NW,304,0.0,0.0,49,0.00,CLR,OVC,0.00,WeatherDisplay:10.37,2013-03-26 00:59:00,
2013-03-25 18:00:00,58.0,38.9,29.94,NW,304,0.0,0.0,49,0.00,CLR,OVC,0.00,WeatherDisplay:10.37,2013-03-26 01:00:00,
2013-03-25 18:01:00,58.0,38.9,29.94,NW,304,0.0,0.0,49,0.00,CLR,OVC,0.00,WeatherDisplay:10.37,2013-03-26 01:01:00,
2013-03-25 18:03:00,57.9,38.8,29.94,NW,313,0.0,0.2,49,0.00,CLR,OVC,0.00,WeatherDisplay:10.37,2013-03-26 01:03:00,
2013-03-25 18:04:00,57.9,39.4,29.94,NW,313,2.3,2.3,50,0.00,CLR,OVC,0.00,WeatherDisplay:10.37,2013-03-26 01:04:00,
2013-03-25 18:05:00,57.8,39.3,29.94,NW,313,0.0,0.0,50,0.00,CLR,OVC,0.00,WeatherDisplay:10.37,2013-03-26 01:05:00,
2013-03-25 18:06:00,57.8,39.3,29.94,NW,313,0.0,0.0,50,0.00,CLR,OVC,0.00,WeatherDisplay:10.37,2013-03-26 01:06:00,
2013-03-25 18:08:00,57.7,38.7,29.94,NNW,338,3.5,3.5,49,0.00,CLR,OVC,0.00,WeatherDisplay:10.37,2013-03-26 01:08:00,
2013-03-25 18:09:00,57.7,38.7,29.94,NNW,338,3.5,0.0,49,0.00,CLR,OVC,0.00,WeatherDisplay:10.37,2013-03-26 01:09:00,
2013-03-25 18:10:00,57.7,38.7,29.94,NNE,22,0.0,0.0,49,0.00,CLR,OVC,0.00,WeatherDisplay:10.37,2013-03-26 01:10:00,
2013-03-25 18:11:00,57.7,38.7,29.94,NNE,22,0.0,0.0,49,0.00,CLR,OVC,0.00,WeatherDisplay:10.37,2013-03-26 01:11:00,
2013-03-25 18:14:00,57.6,38.6,29.94,NNE,22,0.0,0.2,49,0.00,CLR,OVC,0.00,WeatherDisplay:10.37,2013-03-26 01:14:00,
2013-03-25 18:16:00,57.6,39.1,29.94,NNW,341,1.1,0.0,50,0.00,CLR,OVC,0.00,WeatherDisplay:10.37,2013-03-26 01:16:00,
2013-03-25 18:19:00,57.5,39.0,29.94,North,360,2.3,0.0,50,0.00,CLR,OVC,0.00,WeatherDisplay:10.37,2013-03-26 01:19:00,
2013-03-25 18:20:00,57.4,39.4,29.94,North,360,0.0,0.0,51,0.00,CLR,OVC,0.00,WeatherDisplay:10.37,2013-03-26 01:20:00,
2013-03-25 18:21:00,57.4,38.9,29.94,North,360,0.0,0.0,50,0.00,CLR,OVC,0.00,WeatherDisplay:10.37,2013-03-26 01:21:00,
2013-03-25 18:22:00,57.4,39.4,29.94,North,360,0.0,0.0,51,0.00,CLR,OVC,0.00,WeatherDisplay:10.37,2013-03-26 01:22:00,
2013-03-25 18:24:00,57.3,39.3,29.94,NNE,22,3.5,3.5,51,0.00,CLR,OVC,0.00,WeatherDisplay:10.37,2013-03-26 01:24:00,
2013-03-25 18:25:00,57.3,39.3,29.94,NNE,20,3.5,3.5,51,0.00,CLR,OVC,0.00,WeatherDisplay:10.37,2013-03-26 01:25:00,
2013-03-25 18:26:00,57.3,39.3,29.94,NNE,15,1.1,0.0,51,0.00,CLR,OVC,0.00,WeatherDisplay:10.37,2013-03-26 01:26:00,
2013-03-25 18:27:00,57.2,39.2,29.94,North,9,1.1,0.0,51,0.00,CLR,OVC,0.00,WeatherDisplay:10.37,2013-03-26 01:27:00,
2013-03-25 18:29:00,57.1,39.6,29.94,North,9,0.0,0.0,52,0.00,CLR,OVC,0.00,WeatherDisplay:10.37,2013-03-26 01:29:00,
2013-03-25 18:30:00,57.1,39.6,29.94,North,9,0.0,0.0,52,0.00,CLR,OVC,0.00,WeatherDisplay:10.37,2013-03-26 01:30:00,
2013-03-25 18:32:00,57.1,39.1,29.94,North,9,1.1,1.1,51,0.00,CLR,OVC,0.00,WeatherDisplay:10.37,2013-03-26 01:32:00,
2013-03-25 18:34:00,56.9,39.4,29.94,North,9,0.0,0.0,52,0.00,CLR,OVC,0.00,WeatherDisplay:10.37,2013-03-26 01:34:00,
2013-03-25 18:35:00,56.9,39.4,29.94,NNW,330,0.0,0.0,52,0.00,CLR,OVC,0.00,WeatherDisplay:10.37,2013-03-26 01:35:00,
2013-03-25 18:37:00,56.8,39.4,29.94,NNW,330,0.0,0.0,52,0.00,CLR,OVC,0.00,WeatherDisplay:10.37,2013-03-26 01:37:00,
2013-03-25 18:39:00,56.7,39.3,29.94,NNW,330,1.1,0.0,52,0.00,CLR,OVC,0.00,WeatherDisplay:10.37,2013-03-26 01:39:00,
2013-03-25 18:41:00,56.7,39.7,29.94,NNW,330,0.0,0.0,53,0.00,CLR,OVC,0.00,WeatherDisplay:10.37,2013-03-26 01:41:00,
2013-03-25 18:42:00,56.7,40.2,29.94,NNW,330,0.0,0.0,54,0.00,CLR,OVC,0.00,WeatherDisplay:10.37,2013-03-26 01:42:00,
2013-03-25 18:44:00,56.6,39.7,29.94,NNW,330,0.0,0.0,53,0.00,CLR,OVC,0.00,WeatherDisplay:10.37,2013-03-26 01:44:00,
2013-03-25 18:46:00,56.4,39.5,29.94,WNW,298,0.0,0.0,53,0.00,CLR,OVC,0.00,WeatherDisplay:10.37,2013-03-26 01:46:00,
2013-03-25 18:47:00,56.4,39.5,29.94,WNW,298,0.0,0.0,53,0.00,CLR,OVC,0.00,WeatherDisplay:10.37,2013-03-26 01:47:00,
2013-03-25 18:49:00,56.3,39.9,29.94,WNW,298,0.0,0.0,54,0.00,CLR,OVC,0.00,WeatherDisplay:10.37,2013-03-26 01:49:00,
2013-03-25 18:52:00,56.2,40.2,29.94,WNW,298,0.0,0.0,55,0.00,CLR,OVC,0.00,WeatherDisplay:10.37,2013-03-26 01:52:00,
2013-03-25 18:53:00,56.1,39.7,29.94,WNW,297,0.0,0.0,54,0.00,CLR,OVC,0.00,WeatherDisplay:10.37,2013-03-26 01:53:00,
2013-03-25 18:54:00,56.0,40.1,29.94,WNW,298,1.0,0.0,55,0.00,CLR,OVC,0.00,WeatherDisplay:10.37,2013-03-26 01:54:00,
2013-03-25 18:57:00,55.9,39.5,29.94,WNW,297,0.0,0.0,54,0.00,CLR,OVC,0.00,WeatherDisplay:10.37,2013-03-26 01:57:00,
2013-03-25 18:58:00,55.9,40.0,29.94,WNW,297,0.0,0.0,55,0.00,CLR,OVC,0.00,WeatherDisplay:10.37,2013-03-26 01:58:00,
2013-03-25 19:00:00,55.8,39.4,29.94,WNW,298,0.0,0.0,54,0.00,CLR,OVC,0.00,WeatherDisplay:10.37,2013-03-26 02:00:00,
2013-03-25 19:02:00,55.7,39.8,29.94,WNW,297,0.0,0.0,55,0.00,CLR,OVC,0.00,WeatherDisplay:10.37,2013-03-26 02:02:00,
2013-03-25 19:03:00,55.7,40.2,29.94,WNW,298,0.0,0.0,56,0.00,CLR,OVC,0.00,WeatherDisplay:10.37,2013-03-26 02:03:00,
2013-03-25 19:04:00,55.7,40.2,29.94,WNW,298,0.0,0.0,56,0.00,CLR,OVC,0.00,WeatherDisplay:10.37,2013-03-26 02:04:00,
2013-03-25 19:05:00,55.6,40.1,29.94,WNW,298,0.0,0.4,56,0.00,CLR,OVC,0.00,WeatherDisplay:10.37,2013-03-26 02:05:00,
2013-03-25 19:07:00,55.5,40.0,29.94,WNW,298,0.0,0.0,56,0.00,CLR,OVC,0.00,WeatherDisplay:10.37,2013-03-26 02:07:00,
2013-03-25 19:09:00,55.4,40.0,29.94,WNW,298,0.0,0.0,56,0.00,CLR,OVC,0.00,WeatherDisplay:10.37,2013-03-26 02:09:00,
2013-03-25 19:10:00,55.4,40.0,29.94,WNW,297,0.0,0.0,56,0.00,CLR,OVC,0.00,WeatherDisplay:10.37,2013-03-26 02:10:00,
2013-03-25 19:12:00,55.3,40.3,29.94,WNW,298,0.0,0.0,57,0.00,CLR,OVC,0.00,WeatherDisplay:10.37,2013-03-26 02:12:00,
2013-03-25 19:14:00,55.3,40.3,29.94,WNW,298,0.0,0.0,57,0.00,CLR,OVC,0.00,WeatherDisplay:10.37,2013-03-26 02:14:00,
2013-03-25 19:15:00,55.2,39.8,29.94,WNW,298,0.0,0.0,56,0.00,CLR,OVC,0.00,WeatherDisplay:10.37,2013-03-26 02:15:00,
2013-03-25 19:17:00,55.1,40.1,29.94,WNW,298,0.0,0.0,57,0.00,CLR,OVC,0.00,WeatherDisplay:10.37,2013-03-26 02:17:00,
2013-03-25 19:19:00,55.1,39.7,29.94,WNW,298,0.0,0.0,56,0.00,CLR,OVC,0.00,WeatherDisplay:10.37,2013-03-26 02:19:00,
2013-03-25 19:20:00,55.0,39.6,29.94,WNW,298,0.0,0.0,56,0.00,CLR,OVC,0.00,WeatherDisplay:10.37,2013-03-26 02:20:00,
2013-03-25 19:22:00,55.0,40.0,29.94,WNW,298,0.0,0.0,57,0.00,CLR,OVC,0.00,WeatherDisplay:10.37,2013-03-26 02:22:00,
2013-03-25 19:24:00,54.9,40.4,29.94,WNW,298,0.0,0.0,58,0.00,CLR,OVC,0.00,WeatherDisplay:10.37,2013-03-26 02:24:00,
2013-03-25 19:25:00,54.9,39.9,29.94,WNW,298,0.0,0.0,57,0.00,CLR,OVC,0.00,WeatherDisplay:10.37,2013-03-26 02:25:00,
2013-03-25 19:27:00,54.8,39.8,29.94,WNW,298,0.0,0.0,57,0.00,CLR,OVC,0.00,WeatherDisplay:10.37,2013-03-26 02:27:00,
2013-03-25 19:29:00,54.8,39.8,29.94,WNW,298,0.0,0.0,57,0.00,CLR,OVC,0.00,WeatherDisplay:10.37,2013-03-26 02:29:00,
2013-03-25 19:31:00,54.7,40.2,29.94,WNW,298,1.1,0.0,58,0.00,CLR,OVC,0.00,WeatherDisplay:10.37,2013-03-26 02:31:00,
2013-03-25 19:32:00,54.7,40.2,29.95,WNW,298,0.0,0.0,58,0.00,CLR,OVC,0.00,WeatherDisplay:10.37,2013-03-26 02:32:00,
2013-03-25 19:34:00,54.6,40.1,29.95,WNW,298,0.0,0.0,58,0.00,CLR,OVC,0.00,WeatherDisplay:10.37,2013-03-26 02:34:00,
2013-03-25 19:36:00,54.6,40.1,29.95,WNW,298,0.0,0.0,58,0.00,CLR,OVC,0.00,WeatherDisplay:10.37,2013-03-26 02:36:00,
2013-03-25 19:38:00,54.5,39.6,29.95,WNW,298,0.0,0.0,57,0.00,CLR,OVC,0.00,WeatherDisplay:10.37,2013-03-26 02:38:00,
2013-03-25 19:39:00,54.4,39.5,29.95,WNW,298,0.0,0.0,57,0.00,CLR,OVC,0.00,WeatherDisplay:10.37,2013-03-26 02:39:00,
2013-03-25 19:41:00,54.4,39.5,29.95,WNW,298,0.0,0.0,57,0.00,CLR,OVC,0.00,WeatherDisplay:10.37,2013-03-26 02:41:00,
2013-03-25 19:43:00,54.3,39.4,29.95,WNW,298,0.0,0.0,57,0.00,CLR,OVC,0.00,WeatherDisplay:10.37,2013-03-26 02:43:00,
2013-03-25 19:44:00,54.3,39.8,29.95,WNW,298,0.0,0.0,58,0.00,CLR,OVC,0.00,WeatherDisplay:10.37,2013-03-26 02:44:00,
2013-03-25 19:45:00,54.3,39.8,29.95,WNW,298,0.0,0.0,58,0.00,CLR,OVC,0.00,WeatherDisplay:10.37,2013-03-26 02:45:00,
2013-03-25 19:46:00,54.3,39.8,29.95,WNW,298,0.0,0.0,58,0.00,CLR,OVC,0.00,WeatherDisplay:10.37,2013-03-26 02:46:00,
2013-03-25 19:48:00,54.3,39.8,29.95,WNW,298,0.0,0.0,58,0.00,CLR,OVC,0.00,WeatherDisplay:10.37,2013-03-26 02:48:00,
2013-03-25 19:49:00,54.2,39.7,29.95,WNW,298,0.0,0.0,58,0.00,CLR,OVC,0.00,WeatherDisplay:10.37,2013-03-26 02:49:00,
2013-03-25 19:50:00,54.2,39.3,29.95,WNW,298,0.0,0.0,57,0.00,CLR,OVC,0.00,WeatherDisplay:10.37,2013-03-26 02:50:00,
2013-03-25 19:52:00,54.2,39.3,29.95,WNW,298,0.0,0.0,57,0.00,CLR,OVC,0.00,WeatherDisplay:10.37,2013-03-26 02:52:00,
2013-03-25 19:53:00,54.1,39.2,29.95,WNW,298,0.0,0.0,57,0.00,CLR,OVC,0.00,WeatherDisplay:10.37,2013-03-26 02:53:00,
2013-03-25 19:54:00,54.1,39.2,29.95,WNW,298,0.0,0.0,57,0.00,CLR,OVC,0.00,WeatherDisplay:10.37,2013-03-26 02:54:00,
2013-03-25 19:55:00,54.1,39.2,29.95,WNW,298,0.0,0.0,57,0.00,CLR,OVC,0.00,WeatherDisplay:10.37,2013-03-26 02:55:00,
2013-03-25 19:58:00,54.1,39.6,29.95,WNW,298,0.0,0.0,58,0.00,CLR,OVC,0.00,WeatherDisplay:10.37,2013-03-26 02:58:00,
2013-03-25 19:59:00,54.0,40.0,29.95,WNW,298,1.1,1.1,59,0.00,CLR,OVC,0.00,WeatherDisplay:10.37,2013-03-26 02:59:00,
2013-03-25 20:00:00,54.0,39.5,29.95,WNW,298,1.1,0.0,58,0.00,CLR,OVC,0.00,WeatherDisplay:10.37,2013-03-26 03:00:00,
2013-03-25 20:03:00,53.9,39.5,29.95,WNW,298,0.0,0.0,58,0.00,CLR,OVC,0.00,WeatherDisplay:10.37,2013-03-26 03:03:00,
2013-03-25 20:04:00,53.9,39.9,29.95,WNW,298,0.0,0.0,59,0.00,CLR,OVC,0.00,WeatherDisplay:10.37,2013-03-26 03:04:00,
2013-03-25 20:07:00,53.9,39.9,29.95,WNW,298,1.1,0.0,59,0.00,CLR,OVC,0.00,WeatherDisplay:10.37,2013-03-26 03:07:00,
2013-03-25 20:08:00,53.8,40.2,29.95,WNW,298,0.0,0.0,60,0.00,CLR,OVC,0.00,WeatherDisplay:10.37,2013-03-26 03:08:00,
2013-03-25 20:09:00,53.8,39.8,29.95,WNW,298,0.0,0.0,59,0.00,CLR,OVC,0.00,WeatherDisplay:10.37,2013-03-26 03:09:00,
2013-03-25 20:10:00,53.7,39.7,29.95,WNW,298,0.0,0.0,59,0.00,CLR,OVC,0.00,WeatherDisplay:10.37,2013-03-26 03:10:00,
2013-03-25 20:12:00,53.7,40.1,29.95,WNW,298,2.3,2.3,60,0.00,CLR,OVC,0.00,WeatherDisplay:10.37,2013-03-26 03:12:00,
2013-03-25 20:14:00,53.6,40.0,29.95,WNW,298,2.3,0.0,60,0.00,CLR,OVC,0.00,WeatherDisplay:10.37,2013-03-26 03:14:00,
2013-03-25 20:15:00,53.6,40.0,29.95,WNW,298,0.0,0.0,60,0.00,CLR,OVC,0.00,WeatherDisplay:10.37,2013-03-26 03:15:00,
2013-03-25 20:17:00,53.5,40.4,29.95,WNW,298,0.0,0.0,61,0.00,CLR,OVC,0.00,WeatherDisplay:10.37,2013-03-26 03:17:00,
2013-03-25 20:19:00,53.5,40.8,29.95,WNW,298,0.0,0.0,62,0.00,CLR,OVC,0.00,WeatherDisplay:10.37,2013-03-26 03:19:00,
2013-03-25 20:20:00,53.4,40.7,29.95,WNW,298,0.0,0.0,62,0.00,CLR,OVC,0.00,WeatherDisplay:10.37,2013-03-26 03:20:00,
2013-03-25 20:22:00,53.3,40.6,29.95,WNW,298,0.0,0.0,62,0.00,CLR,OVC,0.00,WeatherDisplay:10.37,2013-03-26 03:22:00,
2013-03-25 20:24:00,53.2,40.5,29.95,WNW,298,0.0,0.0,62,0.00,CLR,OVC,0.00,WeatherDisplay:10.37,2013-03-26 03:24:00,
2013-03-25 20:25:00,53.1,40.8,29.95,WNW,298,0.0,0.0,63,0.00,CLR,OVC,0.00,WeatherDisplay:10.37,2013-03-26 03:25:00,
2013-03-25 20:28:00,53.0,40.3,29.95,WNW,298,0.0,0.0,62,0.00,CLR,OVC,0.00,WeatherDisplay:10.37,2013-03-26 03:28:00,
2013-03-25 20:29:00,52.9,40.6,29.95,WNW,298,0.0,0.0,63,0.00,CLR,OVC,0.00,WeatherDisplay:10.37,2013-03-26 03:29:00,
2013-03-25 20:30:00,52.9,40.6,29.95,WNW,298,0.0,0.0,63,0.00,CLR,OVC,0.00,WeatherDisplay:10.37,2013-03-26 03:30:00,
2013-03-25 20:33:00,52.8,40.5,29.95,WNW,298,0.0,0.0,63,0.00,CLR,OVC,0.00,WeatherDisplay:10.37,2013-03-26 03:33:00,
2013-03-25 20:34:00,52.8,40.5,29.95,WNW,298,0.0,0.0,63,0.00,CLR,OVC,0.00,WeatherDisplay:10.37,2013-03-26 03:34:00,
2013-03-25 20:35:00,52.7,40.0,29.95,WNW,298,0.0,0.0,62,0.00,CLR,OVC,0.00,WeatherDisplay:10.37,2013-03-26 03:35:00,
2013-03-25 20:38:00,52.7,40.0,29.95,WNW,298,0.0,0.0,62,0.00,CLR,OVC,0.00,WeatherDisplay:10.37,2013-03-26 03:38:00,
2013-03-25 20:39:00,52.6,39.9,29.95,WNW,298,0.0,0.0,62,0.00,CLR,OVC,0.00,WeatherDisplay:10.37,2013-03-26 03:39:00,
2013-03-25 20:40:00,52.6,39.9,29.95,WNW,298,0.0,0.0,62,0.00,CLR,OVC,0.00,WeatherDisplay:10.37,2013-03-26 03:40:00,
2013-03-25 20:43:00,52.6,40.4,29.95,WNW,298,0.0,0.0,63,0.00,CLR,OVC,0.00,WeatherDisplay:10.37,2013-03-26 03:43:00,
2013-03-25 20:44:00,52.6,40.8,29.95,WNW,298,0.0,0.0,64,0.00,CLR,OVC,0.00,WeatherDisplay:10.37,2013-03-26 03:44:00,
2013-03-25 20:45:00,52.5,40.7,29.95,WNW,298,0.0,0.0,64,0.00,CLR,OVC,0.00,WeatherDisplay:10.37,2013-03-26 03:45:00,
2013-03-25 20:48:00,52.4,41.0,29.95,WNW,298,0.0,0.0,65,0.00,CLR,OVC,0.00,WeatherDisplay:10.37,2013-03-26 03:48:00,
2013-03-25 20:50:00,52.3,40.1,29.96,WNW,298,0.0,0.0,63,0.00,CLR,OVC,0.00,WeatherDisplay:10.37,2013-03-26 03:50:00,
2013-03-25 20:53:00,52.1,40.7,29.96,WNW,298,0.0,0.0,65,0.00,CLR,OVC,0.00,WeatherDisplay:10.37,2013-03-26 03:53:00,
2013-03-25 20:55:00,52.0,40.6,29.96,WNW,298,0.0,0.0,65,0.00,CLR,OVC,0.00,WeatherDisplay:10.37,2013-03-26 03:55:00,
2013-03-25 20:58:00,51.8,40.4,29.96,WNW,298,0.0,0.0,65,0.00,CLR,OVC,0.00,WeatherDisplay:10.37,2013-03-26 03:58:00,
2013-03-25 21:00:00,51.7,40.7,29.96,WNW,298,0.0,0.0,66,0.00,CLR,OVC,0.00,WeatherDisplay:10.37,2013-03-26 04:00:00,
2013-03-25 21:05:00,51.3,40.7,29.96,WNW,298,0.0,0.0,67,0.00,CLR,OVC,0.00,WeatherDisplay:10.37,2013-03-26 04:05:00,
2013-03-25 21:10:00,51.0,40.4,29.96,WNW,298,0.0,0.0,67,0.00,CLR,OVC,0.00,WeatherDisplay:10.37,2013-03-26 04:10:00,
2013-03-25 21:15:00,50.9,40.7,29.96,WNW,298,0.0,0.0,68,0.00,CLR,OVC,0.00,WeatherDisplay:10.37,2013-03-26 04:15:00,
2013-03-25 21:20:00,50.8,41.0,29.96,WNW,298,0.0,0.0,69,0.00,CLR,OVC,0.00,WeatherDisplay:10.37,2013-03-26 04:20:00,
2013-03-25 21:25:00,50.7,41.3,29.96,WNW,298,0.0,0.0,70,0.00,CLR,OVC,0.00,WeatherDisplay:10.37,2013-03-26 04:25:00,
2013-03-25 21:30:00,50.5,41.1,29.96,WNW,298,0.0,0.0,70,0.00,CLR,OVC,0.00,WeatherDisplay:10.37,2013-03-26 04:30:00,
2013-03-25 21:35:00,50.3,40.9,29.97,WNW,298,1.1,0.0,70,0.00,CLR,OVC,0.00,WeatherDisplay:10.37,2013-03-26 04:35:00,
2013-03-25 21:40:00,50.2,40.4,29.97,WNW,298,0.0,0.0,69,0.00,CLR,OVC,0.00,WeatherDisplay:10.37,2013-03-26 04:40:00,
2013-03-25 21:45:00,50.0,40.2,29.97,WNW,298,0.0,0.0,69,0.00,CLR,OVC,0.00,WeatherDisplay:10.37,2013-03-26 04:45:00,
2013-03-25 21:47:00,50.0,40.2,29.97,WNW,298,0.0,0.0,69,0.00,CLR,OVC,0.00,WeatherDisplay:10.37,2013-03-26 04:47:00,
2013-03-25 21:50:00,49.9,40.5,29.97,WNW,298,0.0,0.0,70,0.00,CLR,OVC,0.00,WeatherDisplay:10.37,2013-03-26 04:50:00,
2013-03-25 21:51:00,49.9,40.5,29.97,WNW,298,0.0,0.0,70,0.00,CLR,OVC,0.00,WeatherDisplay:10.37,2013-03-26 04:51:00,
2013-03-25 21:52:00,49.8,40.4,29.97,WNW,298,0.0,0.0,70,0.00,CLR,OVC,0.00,WeatherDisplay:10.37,2013-03-26 04:52:00,
2013-03-25 21:55:00,49.7,40.3,29.97,WNW,298,0.0,0.0,70,0.00,CLR,OVC,0.00,WeatherDisplay:10.37,2013-03-26 04:55:00,
2013-03-25 21:56:00,49.8,40.4,29.97,WNW,298,0.0,0.0,70,0.00,CLR,OVC,0.00,WeatherDisplay:10.37,2013-03-26 04:56:00,
2013-03-25 21:57:00,49.8,40.4,29.97,WNW,298,0.0,0.0,70,0.00,CLR,OVC,0.00,WeatherDisplay:10.37,2013-03-26 04:57:00,
2013-03-25 22:00:00,49.7,40.3,29.97,WNW,298,0.0,0.0,70,0.00,CLR,OVC,0.00,WeatherDisplay:10.37,2013-03-26 05:00:00,
2013-03-25 22:01:00,49.7,40.3,29.97,WNW,298,0.0,0.0,70,0.00,CLR,OVC,0.00,WeatherDisplay:10.37,2013-03-26 05:01:00,
2013-03-25 22:02:00,49.7,40.3,29.97,WNW,298,0.0,0.0,70,0.00,CLR,OVC,0.00,WeatherDisplay:10.37,2013-03-26 05:02:00,
2013-03-25 22:05:00,49.7,40.3,29.97,WNW,298,0.0,0.0,70,0.00,CLR,OVC,0.00,WeatherDisplay:10.37,2013-03-26 05:05:00,
2013-03-25 22:06:00,49.7,40.3,29.97,WNW,298,0.0,0.0,70,0.00,CLR,OVC,0.00,WeatherDisplay:10.37,2013-03-26 05:06:00,
2013-03-25 22:07:00,49.7,40.3,29.97,WNW,298,0.0,0.0,70,0.00,CLR,OVC,0.00,WeatherDisplay:10.37,2013-03-26 05:07:00,
2013-03-25 22:10:00,49.6,40.2,29.97,WNW,298,0.0,0.0,70,0.00,CLR,OVC,0.00,WeatherDisplay:10.37,2013-03-26 05:10:00,
2013-03-25 22:11:00,49.6,40.2,29.97,WNW,298,0.0,0.0,70,0.00,CLR,OVC,0.00,WeatherDisplay:10.37,2013-03-26 05:11:00,
2013-03-25 22:13:00,49.7,40.3,29.97,WNW,298,0.0,0.0,70,0.00,CLR,OVC,0.00,WeatherDisplay:10.37,2013-03-26 05:13:00,
2013-03-25 22:17:00,49.6,39.8,29.97,WNW,298,0.0,0.0,69,0.00,CLR,OVC,0.00,WeatherDisplay:10.37,2013-03-26 05:17:00,
2013-03-25 22:18:00,49.6,39.8,29.97,WNW,298,0.0,0.0,69,0.00,CLR,OVC,0.00,WeatherDisplay:10.37,2013-03-26 05:18:00,
2013-03-25 22:22:00,49.6,39.8,29.97,WNW,298,0.0,0.0,69,0.00,CLR,OVC,0.00,WeatherDisplay:10.37,2013-03-26 05:22:00,
2013-03-25 22:23:00,49.6,39.8,29.97,WNW,298,0.0,0.0,69,0.00,CLR,OVC,0.00,WeatherDisplay:10.37,2013-03-26 05:23:00,
2013-03-25 22:27:00,49.5,39.7,29.97,WNW,298,0.0,0.0,69,0.00,CLR,OVC,0.00,WeatherDisplay:10.37,2013-03-26 05:27:00,
2013-03-25 22:28:00,49.5,39.7,29.97,WNW,298,0.0,0.0,69,0.00,CLR,OVC,0.00,WeatherDisplay:10.37,2013-03-26 05:28:00,
2013-03-25 22:32:00,49.4,39.7,29.97,WNW,298,0.0,0.0,69,0.00,CLR,OVC,0.00,WeatherDisplay:10.37,2013-03-26 05:32:00,
2013-03-25 22:33:00,49.4,39.7,29.97,WNW,298,0.0,0.0,69,0.00,CLR,OVC,0.00,WeatherDisplay:10.37,2013-03-26 05:33:00,
2013-03-25 22:34:00,49.4,39.7,29.97,WNW,298,0.0,0.0,69,0.00,CLR,OVC,0.00,WeatherDisplay:10.37,2013-03-26 05:34:00,
2013-03-25 22:38:00,49.2,39.5,29.97,WNW,298,0.0,0.0,69,0.00,CLR,OVC,0.00,WeatherDisplay:10.37,2013-03-26 05:38:00,
2013-03-25 22:39:00,49.2,39.5,29.97,WNW,298,0.0,0.0,69,0.00,CLR,OVC,0.00,WeatherDisplay:10.37,2013-03-26 05:39:00,
2013-03-25 22:43:00,49.0,39.6,29.97,NW,311,0.0,0.0,70,0.00,CLR,OVC,0.00,WeatherDisplay:10.37,2013-03-26 05:43:00,
2013-03-25 22:44:00,48.9,39.5,29.98,NW,311,0.0,0.0,70,0.00,CLR,OVC,0.00,WeatherDisplay:10.37,2013-03-26 05:44:00,
2013-03-25 22:48:00,48.8,39.4,29.98,NW,311,0.0,0.0,70,0.00,CLR,OVC,0.00,WeatherDisplay:10.37,2013-03-26 05:48:00,
2013-03-25 22:49:00,48.7,39.4,29.98,NW,311,0.0,0.0,70,0.00,CLR,OVC,0.00,WeatherDisplay:10.37,2013-03-26 05:49:00,
2013-03-25 22:50:00,48.7,39.4,29.98,West,278,2.3,2.3,70,0.00,CLR,OVC,0.00,WeatherDisplay:10.37,2013-03-26 05:50:00,
2013-03-25 22:53:00,48.5,39.5,29.98,WNW,286,1.1,1.1,71,0.00,CLR,OVC,0.00,WeatherDisplay:10.37,2013-03-26 05:53:00,
2013-03-25 22:54:00,48.5,39.5,29.98,North,360,1.1,1.1,71,0.00,CLR,OVC,0.00,WeatherDisplay:10.37,2013-03-26 05:54:00,
2013-03-25 22:55:00,48.4,39.4,29.98,North,355,2.3,2.3,71,0.00,CLR,OVC,0.00,WeatherDisplay:10.37,2013-03-26 05:55:00,
2013-03-25 22:58:00,48.3,39.3,29.98,WNW,288,2.3,2.3,71,0.00,CLR,OVC,0.00,WeatherDisplay:10.37,2013-03-26 05:58:00,
2013-03-25 22:59:00,48.2,40.3,29.98,WNW,296,1.1,1.1,74,0.00,CLR,OVC,0.00,WeatherDisplay:10.37,2013-03-26 05:59:00,
2013-03-25 23:00:00,48.2,40.3,29.98,WNW,302,2.3,2.3,74,0.00,CLR,OVC,0.00,WeatherDisplay:10.37,2013-03-26 06:00:00,
2013-03-25 23:01:00,48.1,39.1,29.98,West,276,2.3,2.3,71,0.00,CLR,OVC,0.00,WeatherDisplay:10.37,2013-03-26 06:01:00,
2013-03-25 23:03:00,48.0,39.0,29.98,West,276,0.0,0.2,71,0.00,CLR,OVC,0.00,WeatherDisplay:10.37,2013-03-26 06:03:00,
2013-03-25 23:04:00,48.0,39.4,29.98,West,275,2.0,2.0,72,0.00,CLR,OVC,0.00,WeatherDisplay:10.37,2013-03-26 06:04:00,
2013-03-25 23:05:00,47.9,39.3,29.98,West,275,2.3,2.3,72,0.00,CLR,OVC,0.00,WeatherDisplay:10.37,2013-03-26 06:05:00,
2013-03-25 23:07:00,47.8,39.2,29.98,NW,310,2.3,2.3,72,0.00,CLR,OVC,0.00,WeatherDisplay:10.37,2013-03-26 06:07:00,
2013-03-25 23:08:00,47.8,39.2,29.98,NW,310,1.1,1.1,72,0.00,CLR,OVC,0.00,WeatherDisplay:10.37,2013-03-26 06:08:00,
2013-03-25 23:09:00,47.7,39.1,29.98,NW,310,1.1,0.0,72,0.00,CLR,OVC,0.00,WeatherDisplay:10.37,2013-03-26 06:09:00,
2013-03-25 23:10:00,47.7,39.1,29.98,NW,316,0.0,0.0,72,0.00,CLR,OVC,0.00,WeatherDisplay:10.37,2013-03-26 06:10:00,
2013-03-25 23:12:00,47.6,39.4,29.98,NW,313,1.1,0.0,73,0.00,CLR,OVC,0.00,WeatherDisplay:10.37,2013-03-26 06:12:00,
2013-03-25 23:13:00,47.5,39.3,29.98,NW,312,1.1,0.0,73,0.00,CLR,OVC,0.00,WeatherDisplay:10.37,2013-03-26 06:13:00,
2013-03-25 23:14:00,47.5,39.3,29.98,NW,307,1.1,1.1,73,0.00,CLR,OVC,0.00,WeatherDisplay:10.37,2013-03-26 06:14:00,
2013-03-25 23:15:00,47.5,39.3,29.98,NW,307,1.1,0.0,73,0.00,CLR,OVC,0.00,WeatherDisplay:10.37,2013-03-26 06:15:00,
2013-03-25 23:17:00,47.4,39.2,29.98,West,280,1.1,0.0,73,0.00,CLR,OVC,0.00,WeatherDisplay:10.37,2013-03-26 06:17:00,
2013-03-25 23:19:00,47.3,39.1,29.98,West,279,0.0,0.0,73,0.00,CLR,OVC,0.00,WeatherDisplay:10.37,2013-03-26 06:19:00,
2013-03-25 23:20:00,47.3,39.1,29.98,WNW,284,1.1,0.0,73,0.00,CLR,OVC,0.00,WeatherDisplay:10.37,2013-03-26 06:20:00,
2013-03-25 23:22:00,47.2,39.3,29.98,WNW,284,0.0,0.0,74,0.00,CLR,OVC,0.00,WeatherDisplay:10.37,2013-03-26 06:22:00,
2013-03-25 23:24:00,47.2,39.3,29.98,WNW,284,1.1,0.0,74,0.00,CLR,OVC,0.00,WeatherDisplay:10.37,2013-03-26 06:24:00,
2013-03-25 23:25:00,47.2,39.3,29.98,WNW,284,0.0,0.0,74,0.00,CLR,OVC,0.00,WeatherDisplay:10.37,2013-03-26 06:25:00,
2013-03-25 23:28:00,47.1,39.2,29.99,WNW,294,1.1,1.1,74,0.00,CLR,OVC,0.00,WeatherDisplay:10.37,2013-03-26 06:28:00,
2013-03-25 23:29:00,47.1,39.6,29.99,WNW,294,2.3,2.3,75,0.00,CLR,OVC,0.00,WeatherDisplay:10.37,2013-03-26 06:29:00,
2013-03-25 23:30:00,47.1,39.2,29.98,WNW,294,1.1,1.1,74,0.00,CLR,OVC,0.00,WeatherDisplay:10.37,2013-03-26 06:30:00,
2013-03-25 23:33:00,47.0,39.5,29.99,WNW,294,1.0,1.0,75,0.00,CLR,OVC,0.00,WeatherDisplay:10.37,2013-03-26 06:33:00,
2013-03-25 23:34:00,47.0,39.5,29.99,WNW,292,2.3,2.3,75,0.00,CLR,OVC,0.00,WeatherDisplay:10.37,2013-03-26 06:34:00,
2013-03-25 23:35:00,47.0,39.5,29.98,WNW,291,1.1,0.0,75,0.00,CLR,OVC,0.00,WeatherDisplay:10.37,2013-03-26 06:35:00,
2013-03-25 23:38:00,46.9,39.4,29.99,WNW,288,2.3,2.3,75,0.00,CLR,OVC,0.00,WeatherDisplay:10.37,2013-03-26 06:38:00,
2013-03-25 23:39:00,46.9,39.4,29.99,WNW,288,2.3,2.3,75,0.00,CLR,OVC,0.00,WeatherDisplay:10.37,2013-03-26 06:39:00,
2013-03-25 23:40:00,46.9,39.4,29.99,WNW,288,2.3,2.3,75,0.00,CLR,OVC,0.00,WeatherDisplay:10.37,2013-03-26 06:40:00,
2013-03-25 23:43:00,46.8,39.6,29.99,WNW,283,1.1,0.0,76,0.00,CLR,OVC,0.00,WeatherDisplay:10.37,2013-03-26 06:43:00,
2013-03-25 23:44:00,46.8,39.6,29.99,WNW,286,1.1,1.1,76,0.00,CLR,OVC,0.00,WeatherDisplay:10.37,2013-03-26 06:44:00,
2013-03-25 23:45:00,46.8,39.6,29.99,WNW,285,1.1,1.1,76,0.00,CLR,OVC,0.00,WeatherDisplay:10.37,2013-03-26 06:45:00,
2013-03-25 23:46:00,46.8,39.6,29.99,West,279,3.5,3.5,76,0.00,CLR,OVC,0.00,WeatherDisplay:10.37,2013-03-26 06:46:00,
2013-03-25 23:48:00,46.7,39.5,29.99,West,278,1.1,1.1,76,0.00,CLR,OVC,0.00,WeatherDisplay:10.37,2013-03-26 06:48:00,
2013-03-25 23:49:00,46.7,39.2,29.99,WNW,289,1.1,1.1,75,0.00,CLR,OVC,0.00,WeatherDisplay:10.37,2013-03-26 06:49:00,
2013-03-25 23:50:00,46.7,39.5,29.99,WNW,284,3.0,3.0,76,0.00,CLR,OVC,0.00,WeatherDisplay:10.37,2013-03-26 06:50:00,
2013-03-25 23:51:00,46.7,39.5,29.99,West,281,3.5,3.5,76,0.00,CLR,OVC,0.00,WeatherDisplay:10.37,2013-03-26 06:51:00,
2013-03-25 23:53:00,46.7,39.2,29.99,West,277,2.3,2.3,75,0.00,CLR,OVC,0.00,WeatherDisplay:10.37,2013-03-26 06:53:00,
2013-03-25 23:54:00,46.7,39.2,29.99,West,277,3.5,3.5,75,0.00,CLR,OVC,0.00,WeatherDisplay:10.37,2013-03-26 06:54:00,
2013-03-25 23:55:00,46.7,39.2,29.99,West,276,3.5,3.5,75,0.00,CLR,OVC,0.00,WeatherDisplay:10.37,2013-03-26 06:55:00,
2013-03-25 23:56:00,46.7,39.2,29.99,West,276,3.5,3.5,75,0.00,CLR,OVC,0.00,WeatherDisplay:10.37,2013-03-26 06:56:00,
2013-03-25 23:59:00,46.7,38.9,29.99,West,277,2.3,2.3,74,0.00,CLR,OVC,0.00,WeatherDisplay:10.37,2013-03-26 06:59:00,